GFSGBSN_prec_precacc24_180.txt.gz
Total_Precipitation_Accumulation
0.06 0.01 0.00 0.00 0.00 0.00 0.00 0.00 0.00 0.00 0.00 0.00 0.00 0.00 0.00 0.00 0.00 0.00 0.00 0.00 0.00 0.00 0.00 0.00 0.00 0.00 0.00 0.00 0.00 0.00 0.00 0.00 0.00 0.00 0.00 0.00 0.00 0.00 0.00 0.00 0.00 0.00 0.00 0.00 0.00 0.00 0.00
0.88 0.73 0.36 0.12 0.03 0.01 0.01 0.01 0.01 0.01 0.02 0.02 0.01 0.00 0.00 0.00 0.00 0.00 0.00 0.00 0.00 0.00 0.00 0.00 0.00 0.00 0.00 0.00 0.00 0.00 0.00 0.00 0.00 0.00 0.00 0.00 0.00 0.00 0.00 0.00 0.00 0.00 0.00 0.00 0.00 0.00 0.00
0.26 0.40 0.62 0.65 0.49 0.35 0.30 0.17 0.11 0.09 0.08 0.07 0.04 0.02 0.01 0.02 0.02 0.02 0.01 0.00 0.00 0.00 0.00 0.00 0.00 0.00 0.00 0.00 0.00 0.00 0.00 0.00 0.00 0.00 0.00 0.00 0.00 0.00 0.00 0.00 0.00 0.00 0.00 0.00 0.00 0.00 0.00
0.31 0.31 0.29 0.31 0.58 0.75 0.77 0.69 0.55 0.38 0.27 0.29 0.31 0.28 0.23 0.18 0.09 0.03 0.00 0.00 0.00 0.00 0.00 0.00 0.00 0.00 0.00 0.00 0.00 0.00 0.00 0.00 0.00 0.00 0.00 0.00 0.00 0.00 0.00 0.00 0.00 0.00 0.00 0.00 0.00 0.00 0.00
0.17 0.28 0.36 0.39 0.46 0.50 0.50 0.48 0.43 0.37 0.36 0.31 0.23 0.17 0.14 0.07 0.02 0.01 0.00 0.00 0.00 0.00 0.00 0.00 0.00 0.00 0.00 0.00 0.00 0.00 0.00 0.00 0.00 0.00 0.00 0.00 0.00 0.00 0.00 0.00 0.00 0.00 0.00 0.00 0.00 0.00 0.00
0.06 0.08 0.13 0.18 0.20 0.16 0.11 0.07 0.05 0.07 0.08 0.09 0.10 0.06 0.03 0.01 0.00 0.00 0.00 0.00 0.00 0.00 0.00 0.00 0.00 0.00 0.00 0.00 0.00 0.00 0.00 0.00 0.00 0.00 0.00 0.00 0.00 0.00 0.00 0.00 0.00 0.00 0.00 0.00 0.00 0.00 0.00
0.02 0.01 0.01 0.02 0.02 0.03 0.03 0.03 0.04 0.03 0.03 0.02 0.02 0.01 0.00 0.00 0.00 0.00 0.00 0.00 0.00 0.00 0.00 0.00 0.00 0.00 0.00 0.00 0.00 0.00 0.00 0.00 0.00 0.00 0.00 0.00 0.00 0.00 0.00 0.00 0.00 0.00 0.00 0.00 0.00 0.00 0.00
0.05 0.03 0.01 0.00 0.00 0.01 0.01 0.02 0.02 0.02 0.02 0.02 0.01 0.01 0.01 0.00 0.00 0.00 0.00 0.00 0.00 0.00 0.00 0.00 0.00 0.00 0.00 0.00 0.00 0.00 0.00 0.00 0.00 0.00 0.00 0.00 0.00 0.00 0.00 0.00 0.00 0.00 0.00 0.00 0.00 0.00 0.00
0.04 0.05 0.05 0.03 0.02 0.01 0.00 0.02 0.03 0.02 0.02 0.02 0.02 0.01 0.00 0.00 0.00 0.00 0.00 0.00 0.00 0.00 0.00 0.00 0.00 0.00 0.00 0.00 0.00 0.00 0.00 0.00 0.00 0.00 0.00 0.00 0.00 0.00 0.00 0.00 0.00 0.00 0.00 0.00 0.00 0.00 0.00
0.02 0.01 0.02 0.02 0.02 0.03 0.02 0.02 0.02 0.01 0.00 0.00 0.01 0.00 0.00 0.00 0.00 0.00 0.00 0.00 0.00 0.00 0.00 0.00 0.00 0.00 0.00 0.00 0.00 0.00 0.00 0.00 0.00 0.00 0.00 0.00 0.00 0.00 0.00 0.00 0.00 0.00 0.00 0.00 0.00 0.00 0.00
0.01 0.00 0.01 0.01 0.01 0.01 0.01 0.02 0.01 0.02 0.01 0.01 0.00 0.00 0.00 0.00 0.00 0.00 0.00 0.00 0.00 0.00 0.00 0.00 0.00 0.00 0.00 0.00 0.00 0.00 0.00 0.00 0.00 0.00 0.00 0.00 0.00 0.00 0.00 0.00 0.00 0.00 0.00 0.00 0.00 0.00 0.00
0.03 0.01 0.01 0.01 0.01 0.01 0.00 0.00 0.01 0.01 0.01 0.00 0.00 0.00 0.00 0.00 0.00 0.00 0.00 0.00 0.00 0.00 0.00 0.00 0.00 0.00 0.00 0.00 0.00 0.00 0.00 0.00 0.00 0.00 0.00 0.00 0.00 0.00 0.00 0.00 0.00 0.00 0.00 0.00 0.00 0.00 0.00
0.06 0.03 0.02 0.01 0.01 0.01 0.00 0.00 0.00 0.00 0.00 0.00 0.01 0.01 0.00 0.00 0.00 0.00 0.00 0.00 0.02 0.00 0.00 0.00 0.00 0.00 0.00 0.00 0.00 0.00 0.00 0.00 0.00 0.00 0.00 0.00 0.00 0.00 0.00 0.00 0.00 0.00 0.00 0.00 0.00 0.00 0.00
0.14 0.12 0.07 0.04 0.02 0.01 0.00 0.00 0.00 0.00 0.00 0.00 0.02 0.02 0.01 0.00 0.00 0.00 0.00 0.01 0.01 0.00 0.00 0.00 0.00 0.00 0.00 0.00 0.00 0.00 0.00 0.00 0.00 0.00 0.00 0.00 0.00 0.00 0.00 0.00 0.00 0.00 0.00 0.00 0.00 0.00 0.00
0.11 0.19 0.16 0.11 0.07 0.06 0.04 0.00 0.00 0.00 0.00 0.01 0.03 0.05 0.03 0.01 0.00 0.00 0.00 0.01 0.01 0.00 0.00 0.00 0.00 0.00 0.00 0.00 0.00 0.00 0.00 0.00 0.00 0.00 0.00 0.00 0.00 0.00 0.00 0.00 0.00 0.00 0.00 0.00 0.00 0.00 0.00
0.03 0.15 0.29 0.25 0.15 0.11 0.13 0.11 0.02 0.01 0.00 0.02 0.04 0.05 0.01 0.01 0.00 0.01 0.02 0.00 0.00 0.00 0.00 0.00 0.00 0.00 0.00 0.00 0.00 0.00 0.00 0.00 0.00 0.00 0.00 0.00 0.00 0.00 0.00 0.00 0.00 0.00 0.00 0.00 0.00 0.02 0.01
0.01 0.05 0.23 0.40 0.33 0.25 0.16 0.20 0.23 0.09 0.06 0.05 0.06 0.04 0.02 0.02 0.05 0.04 0.02 0.00 0.00 0.00 0.00 0.00 0.00 0.00 0.00 0.00 0.00 0.00 0.00 0.00 0.00 0.00 0.00 0.00 0.00 0.00 0.00 0.00 0.00 0.00 0.00 0.00 0.00 0.02 0.03
0.01 0.06 0.13 0.35 0.39 0.31 0.25 0.23 0.31 0.41 0.25 0.36 0.16 0.04 0.06 0.05 0.06 0.02 0.00 0.00 0.00 0.00 0.00 0.00 0.00 0.00 0.00 0.00 0.00 0.00 0.00 0.00 0.00 0.00 0.00 0.00 0.00 0.00 0.00 0.00 0.00 0.00 0.00 0.00 0.02 0.04 0.07
0.02 0.06 0.17 0.31 0.37 0.27 0.21 0.20 0.28 0.47 0.59 0.40 0.39 0.13 0.18 0.15 0.02 0.00 0.00 0.00 0.00 0.00 0.00 0.00 0.00 0.00 0.00 0.00 0.00 0.00 0.00 0.00 0.00 0.00 0.00 0.00 0.00 0.00 0.00 0.00 0.00 0.01 0.00 0.00 0.00 0.02 0.04
0.00 0.02 0.16 0.31 0.42 0.29 0.21 0.18 0.20 0.40 0.73 0.70 0.58 0.42 0.36 0.51 0.05 0.00 0.00 0.00 0.00 0.00 0.00 0.00 0.00 0.00 0.00 0.00 0.00 0.00 0.00 0.00 0.00 0.00 0.00 0.00 0.01 0.02 0.01 0.00 0.01 0.01 0.00 0.00 0.02 0.07 0.08
0.00 0.02 0.13 0.25 0.45 0.39 0.28 0.24 0.20 0.27 0.64 0.62 0.78 0.45 0.12 0.28 0.28 0.04 0.00 0.00 0.00 0.00 0.00 0.00 0.00 0.00 0.00 0.00 0.00 0.00 0.00 0.00 0.00 0.00 0.00 0.00 0.02 0.00 0.00 0.00 0.00 0.00 0.00 0.00 0.01 0.02 0.05
0.02 0.02 0.19 0.19 0.37 0.43 0.32 0.28 0.27 0.28 0.56 0.67 0.56 0.30 0.09 0.05 0.01 0.10 0.20 0.06 0.00 0.00 0.00 0.00 0.00 0.00 0.00 0.01 0.00 0.00 0.00 0.00 0.00 0.00 0.00 0.00 0.01 0.00 0.00 0.00 0.00 0.00 0.00 0.00 0.00 0.01 0.01
0.02 0.03 0.27 0.29 0.24 0.34 0.33 0.31 0.32 0.35 0.57 0.74 0.42 0.15 0.17 0.08 0.02 0.03 0.03 0.02 0.00 0.02 0.04 0.00 0.00 0.00 0.01 0.00 0.00 0.00 0.00 0.00 0.00 0.00 0.00 0.01 0.02 0.05 0.02 0.01 0.04 0.03 0.00 0.00 0.00 0.00 0.00
0.04 0.03 0.19 0.43 0.24 0.23 0.26 0.32 0.30 0.38 0.44 0.18 0.12 0.16 0.31 0.23 0.05 0.01 0.00 0.00 0.01 0.02 0.02 0.02 0.02 0.01 0.00 0.01 0.00 0.00 0.00 0.00 0.00 0.00 0.01 0.02 0.03 0.09 0.06 0.10 0.20 0.02 0.00 0.00 0.00 0.00 0.01
0.06 0.07 0.18 0.37 0.33 0.18 0.20 0.26 0.27 0.28 0.31 0.21 0.13 0.28 0.31 0.15 0.02 0.01 0.00 0.00 0.00 0.01 0.01 0.00 0.01 0.01 0.03 0.07 0.12 0.07 0.02 0.02 0.00 0.00 0.01 0.01 0.06 0.26 0.25 0.14 0.04 0.00 0.00 0.01 0.04 0.03 0.03
0.10 0.11 0.26 0.31 0.36 0.21 0.16 0.19 0.18 0.21 0.24 0.27 0.24 0.26 0.40 0.37 0.06 0.00 0.01 0.00 0.01 0.00 0.00 0.00 0.00 0.01 0.02 0.08 0.19 0.20 0.08 0.04 0.01 0.01 0.00 0.01 0.05 0.23 0.22 0.21 0.06 0.01 0.01 0.01 0.02 0.05 0.03
0.19 0.16 0.25 0.32 0.30 0.24 0.15 0.13 0.15 0.18 0.22 0.26 0.25 0.26 0.50 0.52 0.12 0.05 0.04 0.02 0.01 0.01 0.02 0.01 0.03 0.08 0.10 0.24 0.24 0.12 0.07 0.03 0.05 0.05 0.03 0.03 0.07 0.13 0.11 0.18 0.05 0.00 0.01 0.03 0.08 0.13 0.06
0.23 0.25 0.29 0.25 0.28 0.24 0.17 0.12 0.14 0.18 0.23 0.28 0.25 0.21 0.41 0.47 0.15 0.06 0.04 0.04 0.06 0.07 0.10 0.13 0.20 0.11 0.12 0.23 0.28 0.19 0.13 0.08 0.05 0.05 0.10 0.08 0.16 0.14 0.13 0.22 0.12 0.01 0.04 0.10 0.13 0.11 0.03
0.22 0.28 0.35 0.27 0.27 0.24 0.19 0.14 0.14 0.18 0.20 0.33 0.36 0.23 0.33 0.62 0.24 0.01 0.01 0.01 0.01 0.03 0.11 0.15 0.18 0.18 0.17 0.13 0.10 0.13 0.13 0.14 0.13 0.10 0.13 0.13 0.10 0.13 0.10 0.12 0.12 0.08 0.05 0.05 0.03 0.01 0.01

GFSGBSN_prec_precacc24_183.txt.gz
Total_Precipitation_Accumulation
0.00 0.00 0.00 0.00 0.00 0.00 0.00 0.00 0.00 0.00 0.00 0.00 0.00 0.00 0.00 0.00 0.00 0.00 0.00 0.00 0.00 0.00 0.00 0.00 0.00 0.00 0.00 0.00 0.00 0.00 0.00 0.00 0.00 0.00 0.00 0.00 0.00 0.00 0.00 0.00 0.00 0.00 0.00 0.00 0.00 0.00 0.00
0.27 0.30 0.17 0.06 0.02 0.01 0.00 0.00 0.00 0.00 0.00 0.00 0.00 0.00 0.00 0.00 0.00 0.00 0.00 0.00 0.00 0.00 0.00 0.00 0.00 0.00 0.00 0.00 0.00 0.00 0.00 0.00 0.00 0.00 0.00 0.00 0.00 0.00 0.00 0.00 0.00 0.00 0.00 0.00 0.00 0.00 0.00
0.11 0.16 0.32 0.39 0.38 0.30 0.21 0.11 0.07 0.07 0.06 0.04 0.02 0.01 0.01 0.02 0.02 0.02 0.01 0.00 0.00 0.00 0.00 0.00 0.00 0.00 0.00 0.00 0.00 0.00 0.00 0.00 0.00 0.00 0.00 0.00 0.00 0.00 0.00 0.00 0.00 0.00 0.00 0.00 0.00 0.00 0.00
0.26 0.25 0.21 0.23 0.45 0.64 0.67 0.59 0.46 0.35 0.26 0.29 0.30 0.27 0.23 0.18 0.09 0.03 0.00 0.00 0.00 0.00 0.00 0.00 0.00 0.00 0.00 0.00 0.00 0.00 0.00 0.00 0.00 0.00 0.00 0.00 0.00 0.00 0.00 0.00 0.00 0.00 0.00 0.00 0.00 0.00 0.00
0.09 0.20 0.28 0.34 0.45 0.47 0.46 0.45 0.41 0.36 0.36 0.31 0.24 0.17 0.14 0.07 0.02 0.01 0.00 0.00 0.00 0.00 0.00 0.00 0.00 0.00 0.00 0.00 0.00 0.00 0.00 0.00 0.00 0.00 0.00 0.00 0.00 0.00 0.00 0.00 0.00 0.00 0.00 0.00 0.00 0.00 0.00
0.04 0.06 0.08 0.13 0.18 0.16 0.10 0.05 0.04 0.07 0.08 0.09 0.10 0.06 0.03 0.01 0.00 0.00 0.00 0.00 0.00 0.00 0.00 0.00 0.00 0.00 0.00 0.00 0.00 0.00 0.00 0.00 0.00 0.00 0.00 0.00 0.00 0.00 0.00 0.00 0.00 0.00 0.00 0.00 0.00 0.00 0.00
0.02 0.01 0.01 0.02 0.02 0.03 0.03 0.03 0.03 0.03 0.03 0.02 0.02 0.01 0.00 0.00 0.00 0.00 0.00 0.00 0.00 0.00 0.00 0.00 0.00 0.00 0.00 0.00 0.00 0.00 0.00 0.00 0.00 0.00 0.00 0.00 0.00 0.00 0.00 0.00 0.00 0.00 0.00 0.00 0.00 0.00 0.00
0.05 0.03 0.01 0.00 0.00 0.01 0.01 0.02 0.02 0.02 0.02 0.02 0.01 0.01 0.01 0.00 0.00 0.00 0.00 0.00 0.00 0.00 0.00 0.00 0.00 0.00 0.00 0.00 0.00 0.00 0.00 0.00 0.00 0.00 0.00 0.00 0.00 0.00 0.00 0.00 0.00 0.00 0.00 0.00 0.00 0.00 0.00
0.03 0.04 0.04 0.02 0.02 0.00 0.00 0.01 0.03 0.02 0.02 0.02 0.02 0.01 0.00 0.00 0.00 0.00 0.00 0.00 0.00 0.00 0.00 0.00 0.00 0.00 0.00 0.00 0.00 0.00 0.00 0.00 0.00 0.00 0.00 0.00 0.00 0.00 0.00 0.00 0.00 0.00 0.00 0.00 0.00 0.00 0.00
0.01 0.01 0.01 0.01 0.02 0.03 0.02 0.01 0.02 0.01 0.00 0.00 0.01 0.00 0.00 0.00 0.00 0.00 0.00 0.00 0.00 0.00 0.00 0.00 0.00 0.00 0.00 0.00 0.00 0.00 0.00 0.00 0.00 0.00 0.00 0.00 0.00 0.00 0.00 0.00 0.00 0.00 0.00 0.00 0.00 0.00 0.00
0.00 0.00 0.00 0.01 0.01 0.01 0.01 0.01 0.01 0.02 0.01 0.01 0.00 0.00 0.00 0.00 0.00 0.00 0.00 0.00 0.00 0.00 0.00 0.00 0.00 0.00 0.00 0.00 0.00 0.00 0.00 0.00 0.00 0.00 0.00 0.00 0.00 0.00 0.00 0.00 0.00 0.00 0.00 0.00 0.00 0.00 0.00
0.02 0.01 0.00 0.00 0.00 0.00 0.00 0.00 0.00 0.01 0.01 0.00 0.00 0.00 0.00 0.00 0.00 0.00 0.00 0.00 0.00 0.00 0.00 0.00 0.00 0.00 0.00 0.00 0.00 0.00 0.00 0.00 0.00 0.00 0.00 0.00 0.00 0.00 0.00 0.00 0.00 0.00 0.00 0.00 0.00 0.00 0.00
0.01 0.03 0.02 0.01 0.00 0.00 0.00 0.00 0.00 0.00 0.00 0.00 0.00 0.01 0.00 0.00 0.00 0.00 0.00 0.00 0.02 0.00 0.00 0.00 0.00 0.00 0.00 0.00 0.00 0.00 0.00 0.00 0.00 0.00 0.00 0.00 0.00 0.00 0.00 0.00 0.00 0.00 0.00 0.00 0.00 0.00 0.00
0.00 0.02 0.06 0.04 0.02 0.01 0.00 0.00 0.00 0.00 0.00 0.00 0.01 0.01 0.00 0.00 0.00 0.00 0.00 0.01 0.01 0.00 0.00 0.00 0.00 0.00 0.00 0.00 0.00 0.00 0.00 0.00 0.00 0.00 0.00 0.00 0.00 0.00 0.00 0.00 0.00 0.00 0.00 0.00 0.00 0.00 0.00
0.00 0.00 0.06 0.10 0.07 0.06 0.04 0.00 0.00 0.00 0.00 0.00 0.02 0.03 0.02 0.01 0.00 0.00 0.00 0.01 0.01 0.00 0.00 0.00 0.00 0.00 0.00 0.00 0.00 0.00 0.00 0.00 0.00 0.00 0.00 0.00 0.00 0.00 0.00 0.00 0.00 0.00 0.00 0.00 0.00 0.00 0.00
0.00 0.00 0.03 0.11 0.14 0.10 0.13 0.11 0.02 0.01 0.00 0.00 0.02 0.04 0.01 0.01 0.00 0.01 0.02 0.00 0.00 0.00 0.00 0.00 0.00 0.00 0.00 0.00 0.00 0.00 0.00 0.00 0.00 0.00 0.00 0.00 0.00 0.00 0.00 0.00 0.00 0.00 0.00 0.00 0.00 0.02 0.01
0.00 0.00 0.00 0.05 0.16 0.22 0.17 0.21 0.24 0.09 0.06 0.02 0.04 0.04 0.02 0.02 0.05 0.04 0.02 0.00 0.00 0.00 0.00 0.00 0.00 0.00 0.00 0.00 0.00 0.00 0.00 0.00 0.00 0.00 0.00 0.00 0.00 0.00 0.00 0.00 0.00 0.00 0.00 0.00 0.00 0.01 0.04
0.00 0.00 0.00 0.01 0.07 0.17 0.24 0.23 0.32 0.42 0.24 0.33 0.18 0.05 0.05 0.04 0.05 0.02 0.00 0.00 0.00 0.00 0.00 0.00 0.00 0.00 0.00 0.00 0.00 0.00 0.00 0.00 0.00 0.00 0.00 0.00 0.00 0.00 0.00 0.00 0.00 0.00 0.00 0.00 0.01 0.02 0.07
0.02 0.02 0.01 0.01 0.07 0.10 0.16 0.20 0.28 0.49 0.60 0.40 0.40 0.14 0.17 0.14 0.02 0.00 0.00 0.00 0.00 0.00 0.00 0.00 0.00 0.00 0.00 0.00 0.00 0.00 0.00 0.00 0.00 0.00 0.00 0.00 0.00 0.00 0.00 0.00 0.00 0.01 0.00 0.00 0.00 0.00 0.01
0.00 0.00 0.01 0.01 0.04 0.16 0.16 0.17 0.20 0.42 0.76 0.74 0.58 0.44 0.38 0.50 0.05 0.00 0.00 0.00 0.00 0.00 0.00 0.00 0.00 0.00 0.00 0.00 0.00 0.00 0.00 0.00 0.00 0.00 0.00 0.00 0.01 0.02 0.01 0.00 0.01 0.01 0.00 0.00 0.01 0.05 0.06
0.00 0.00 0.00 0.01 0.02 0.19 0.23 0.23 0.20 0.28 0.73 0.70 0.84 0.47 0.13 0.29 0.29 0.04 0.00 0.00 0.00 0.00 0.00 0.00 0.00 0.00 0.00 0.00 0.00 0.00 0.00 0.00 0.00 0.00 0.00 0.00 0.02 0.00 0.00 0.00 0.00 0.00 0.00 0.00 0.01 0.01 0.04
0.01 0.01 0.00 0.00 0.01 0.15 0.27 0.28 0.27 0.29 0.63 0.76 0.74 0.40 0.11 0.06 0.02 0.11 0.22 0.07 0.00 0.00 0.00 0.00 0.00 0.00 0.00 0.01 0.00 0.00 0.00 0.00 0.00 0.00 0.00 0.00 0.01 0.00 0.00 0.00 0.00 0.00 0.00 0.00 0.00 0.01 0.01
0.01 0.01 0.01 0.01 0.01 0.07 0.28 0.31 0.32 0.37 0.59 0.78 0.51 0.24 0.26 0.14 0.06 0.08 0.07 0.03 0.01 0.02 0.04 0.00 0.02 0.02 0.03 0.02 0.01 0.00 0.00 0.00 0.00 0.00 0.01 0.00 0.01 0.03 0.02 0.00 0.02 0.03 0.00 0.00 0.00 0.00 0.00
0.01 0.01 0.01 0.01 0.01 0.03 0.21 0.32 0.30 0.39 0.45 0.20 0.18 0.29 0.43 0.33 0.10 0.04 0.02 0.02 0.02 0.04 0.04 0.04 0.04 0.03 0.01 0.01 0.00 0.00 0.00 0.00 0.00 0.00 0.01 0.03 0.05 0.08 0.06 0.09 0.21 0.02 0.00 0.00 0.00 0.00 0.01
0.01 0.01 0.01 0.01 0.02 0.03 0.16 0.26 0.27 0.28 0.31 0.24 0.19 0.40 0.43 0.24 0.06 0.04 0.02 0.01 0.02 0.02 0.01 0.01 0.01 0.01 0.03 0.05 0.10 0.05 0.01 0.01 0.00 0.00 0.00 0.02 0.08 0.28 0.27 0.16 0.05 0.00 0.00 0.01 0.04 0.03 0.03
0.03 0.04 0.05 0.03 0.03 0.06 0.13 0.19 0.18 0.21 0.24 0.26 0.26 0.30 0.46 0.43 0.09 0.01 0.01 0.00 0.00 0.00 0.00 0.00 0.00 0.01 0.01 0.07 0.20 0.18 0.07 0.04 0.02 0.02 0.01 0.01 0.05 0.25 0.26 0.25 0.08 0.00 0.02 0.01 0.02 0.04 0.05
0.10 0.09 0.08 0.06 0.07 0.15 0.14 0.13 0.15 0.18 0.22 0.26 0.22 0.24 0.50 0.52 0.11 0.05 0.04 0.03 0.02 0.02 0.01 0.01 0.03 0.07 0.12 0.27 0.25 0.13 0.08 0.04 0.04 0.04 0.06 0.07 0.08 0.13 0.11 0.18 0.05 0.00 0.00 0.02 0.08 0.12 0.10
0.16 0.16 0.11 0.07 0.10 0.20 0.17 0.12 0.14 0.18 0.22 0.27 0.22 0.18 0.38 0.47 0.15 0.06 0.04 0.04 0.06 0.07 0.11 0.15 0.19 0.13 0.15 0.26 0.32 0.21 0.13 0.09 0.07 0.04 0.10 0.10 0.16 0.13 0.12 0.19 0.09 0.01 0.04 0.11 0.12 0.11 0.03
0.10 0.17 0.19 0.14 0.14 0.21 0.19 0.14 0.14 0.18 0.20 0.31 0.32 0.20 0.31 0.60 0.23 0.01 0.01 0.01 0.01 0.03 0.10 0.13 0.18 0.16 0.21 0.19 0.19 0.21 0.15 0.14 0.13 0.10 0.13 0.12 0.09 0.10 0.07 0.09 0.09 0.08 0.05 0.05 0.03 0.01 0.01

GFSGBSN_prec_precacc24_186.txt.gz
Total_Precipitation_Accumulation
0.00 0.00 0.00 0.00 0.00 0.00 0.00 0.00 0.00 0.00 0.00 0.00 0.00 0.00 0.00 0.00 0.00 0.00 0.00 0.00 0.00 0.00 0.00 0.00 0.00 0.00 0.00 0.00 0.00 0.00 0.00 0.00 0.00 0.00 0.00 0.00 0.00 0.00 0.00 0.00 0.00 0.00 0.00 0.00 0.00 0.00 0.00
0.06 0.08 0.05 0.02 0.01 0.00 0.00 0.00 0.00 0.00 0.00 0.00 0.00 0.00 0.00 0.00 0.00 0.00 0.00 0.00 0.00 0.00 0.00 0.00 0.00 0.00 0.00 0.00 0.00 0.00 0.00 0.00 0.00 0.00 0.00 0.00 0.00 0.00 0.00 0.00 0.00 0.00 0.00 0.00 0.00 0.00 0.00
0.04 0.05 0.10 0.11 0.12 0.14 0.15 0.10 0.06 0.04 0.04 0.02 0.00 0.00 0.01 0.02 0.02 0.02 0.01 0.00 0.00 0.00 0.00 0.00 0.00 0.00 0.00 0.00 0.00 0.00 0.00 0.00 0.00 0.00 0.00 0.00 0.00 0.00 0.00 0.00 0.00 0.00 0.00 0.00 0.00 0.00 0.00
0.15 0.09 0.11 0.12 0.21 0.36 0.41 0.34 0.27 0.26 0.21 0.24 0.27 0.26 0.23 0.18 0.09 0.03 0.00 0.00 0.00 0.00 0.00 0.00 0.00 0.00 0.00 0.00 0.00 0.00 0.00 0.00 0.00 0.00 0.00 0.00 0.00 0.00 0.00 0.00 0.00 0.00 0.00 0.00 0.00 0.00 0.00
0.03 0.05 0.04 0.11 0.27 0.28 0.21 0.22 0.21 0.24 0.30 0.29 0.23 0.17 0.14 0.07 0.02 0.00 0.00 0.00 0.00 0.00 0.00 0.00 0.00 0.00 0.00 0.00 0.00 0.00 0.00 0.00 0.00 0.00 0.00 0.00 0.00 0.00 0.00 0.00 0.00 0.00 0.00 0.00 0.00 0.00 0.00
0.01 0.02 0.02 0.03 0.06 0.09 0.07 0.04 0.02 0.04 0.05 0.07 0.09 0.06 0.03 0.01 0.00 0.00 0.00 0.00 0.00 0.00 0.00 0.00 0.00 0.00 0.00 0.00 0.00 0.00 0.00 0.00 0.00 0.00 0.00 0.00 0.00 0.00 0.00 0.00 0.00 0.00 0.00 0.00 0.00 0.00 0.00
0.02 0.01 0.01 0.01 0.02 0.03 0.02 0.03 0.03 0.03 0.03 0.02 0.02 0.01 0.00 0.00 0.00 0.00 0.00 0.00 0.00 0.00 0.00 0.00 0.00 0.00 0.00 0.00 0.00 0.00 0.00 0.00 0.00 0.00 0.00 0.00 0.00 0.00 0.00 0.00 0.00 0.00 0.00 0.00 0.00 0.00 0.00
0.04 0.02 0.01 0.00 0.01 0.01 0.02 0.02 0.02 0.02 0.02 0.02 0.01 0.01 0.01 0.00 0.00 0.00 0.00 0.00 0.00 0.00 0.00 0.00 0.00 0.00 0.00 0.00 0.00 0.00 0.00 0.00 0.00 0.00 0.00 0.00 0.00 0.00 0.00 0.00 0.00 0.00 0.00 0.00 0.00 0.00 0.00
0.01 0.02 0.02 0.01 0.01 0.00 0.00 0.01 0.02 0.02 0.02 0.02 0.02 0.01 0.00 0.00 0.00 0.00 0.00 0.00 0.00 0.00 0.00 0.00 0.00 0.00 0.00 0.00 0.00 0.00 0.00 0.00 0.00 0.00 0.00 0.00 0.00 0.00 0.00 0.00 0.00 0.00 0.00 0.00 0.00 0.00 0.00
0.00 0.00 0.00 0.00 0.00 0.00 0.01 0.01 0.01 0.01 0.00 0.00 0.01 0.00 0.00 0.00 0.00 0.00 0.00 0.00 0.00 0.00 0.00 0.00 0.00 0.00 0.00 0.00 0.00 0.00 0.00 0.00 0.00 0.00 0.00 0.00 0.00 0.00 0.00 0.00 0.00 0.00 0.00 0.00 0.00 0.00 0.00
0.00 0.00 0.00 0.00 0.00 0.00 0.00 0.00 0.00 0.00 0.00 0.00 0.00 0.00 0.00 0.00 0.00 0.00 0.00 0.00 0.00 0.00 0.00 0.00 0.00 0.00 0.00 0.00 0.00 0.00 0.00 0.00 0.00 0.00 0.00 0.00 0.00 0.00 0.00 0.00 0.00 0.00 0.00 0.00 0.00 0.00 0.00
0.02 0.01 0.00 0.00 0.00 0.00 0.00 0.00 0.00 0.00 0.00 0.00 0.00 0.00 0.00 0.00 0.00 0.00 0.00 0.00 0.00 0.00 0.00 0.00 0.00 0.00 0.00 0.00 0.00 0.00 0.00 0.00 0.00 0.00 0.00 0.00 0.00 0.00 0.00 0.00 0.00 0.00 0.00 0.00 0.00 0.00 0.00
0.07 0.04 0.02 0.01 0.00 0.00 0.00 0.00 0.00 0.00 0.00 0.00 0.00 0.00 0.00 0.00 0.00 0.00 0.00 0.00 0.02 0.00 0.00 0.00 0.00 0.00 0.00 0.00 0.00 0.00 0.00 0.00 0.00 0.00 0.00 0.00 0.00 0.00 0.00 0.00 0.00 0.00 0.00 0.00 0.00 0.00 0.00
0.11 0.07 0.04 0.02 0.02 0.01 0.00 0.00 0.00 0.00 0.00 0.00 0.00 0.00 0.00 0.00 0.00 0.00 0.00 0.01 0.01 0.00 0.00 0.00 0.00 0.00 0.00 0.00 0.00 0.00 0.00 0.00 0.00 0.00 0.00 0.00 0.00 0.00 0.00 0.00 0.00 0.00 0.00 0.00 0.00 0.00 0.00
0.13 0.09 0.04 0.03 0.04 0.06 0.04 0.00 0.00 0.00 0.00 0.00 0.00 0.01 0.01 0.00 0.00 0.00 0.00 0.00 0.00 0.00 0.00 0.00 0.00 0.00 0.00 0.00 0.00 0.00 0.00 0.00 0.00 0.00 0.00 0.00 0.00 0.00 0.00 0.00 0.00 0.00 0.00 0.00 0.00 0.00 0.00
0.13 0.09 0.05 0.04 0.03 0.04 0.12 0.11 0.02 0.00 0.00 0.00 0.01 0.02 0.00 0.00 0.00 0.00 0.02 0.00 0.00 0.00 0.00 0.00 0.00 0.00 0.00 0.00 0.00 0.00 0.00 0.00 0.00 0.00 0.00 0.00 0.00 0.00 0.00 0.00 0.00 0.00 0.00 0.00 0.00 0.02 0.00
0.09 0.08 0.07 0.07 0.07 0.05 0.07 0.20 0.24 0.09 0.06 0.01 0.03 0.03 0.01 0.01 0.03 0.03 0.02 0.00 0.00 0.00 0.00 0.00 0.00 0.00 0.00 0.00 0.00 0.00 0.00 0.00 0.00 0.00 0.00 0.00 0.00 0.00 0.00 0.00 0.00 0.00 0.00 0.00 0.00 0.01 0.04
0.05 0.05 0.05 0.04 0.03 0.03 0.05 0.14 0.31 0.42 0.25 0.31 0.16 0.05 0.04 0.03 0.03 0.01 0.00 0.00 0.00 0.00 0.00 0.00 0.00 0.00 0.00 0.00 0.00 0.00 0.00 0.00 0.00 0.00 0.00 0.00 0.00 0.00 0.00 0.00 0.00 0.00 0.00 0.00 0.01 0.02 0.07
0.02 0.02 0.02 0.01 0.01 0.01 0.02 0.07 0.21 0.48 0.60 0.39 0.39 0.15 0.16 0.11 0.01 0.00 0.00 0.00 0.00 0.00 0.00 0.00 0.00 0.00 0.00 0.00 0.00 0.00 0.00 0.00 0.00 0.00 0.00 0.00 0.00 0.00 0.00 0.00 0.00 0.01 0.00 0.00 0.00 0.00 0.01
0.03 0.02 0.02 0.02 0.00 0.00 0.01 0.04 0.10 0.39 0.76 0.74 0.58 0.45 0.38 0.49 0.05 0.00 0.00 0.00 0.00 0.00 0.00 0.00 0.00 0.00 0.00 0.00 0.00 0.00 0.00 0.00 0.00 0.00 0.00 0.00 0.01 0.02 0.01 0.00 0.01 0.01 0.00 0.00 0.01 0.04 0.04
0.02 0.01 0.00 0.01 0.01 0.00 0.00 0.06 0.09 0.23 0.74 0.69 0.84 0.49 0.14 0.29 0.29 0.04 0.01 0.00 0.00 0.00 0.00 0.00 0.00 0.00 0.00 0.00 0.00 0.00 0.00 0.00 0.00 0.00 0.00 0.00 0.02 0.00 0.00 0.00 0.00 0.00 0.00 0.00 0.01 0.01 0.04
0.01 0.01 0.00 0.00 0.00 0.00 0.00 0.04 0.11 0.22 0.65 0.77 0.75 0.43 0.13 0.07 0.03 0.12 0.23 0.08 0.01 0.00 0.00 0.00 0.00 0.00 0.00 0.01 0.00 0.00 0.00 0.01 0.01 0.00 0.00 0.00 0.02 0.00 0.00 0.00 0.00 0.00 0.00 0.00 0.00 0.01 0.01
0.01 0.02 0.01 0.00 0.00 0.00 0.00 0.02 0.11 0.24 0.56 0.79 0.53 0.26 0.32 0.19 0.08 0.10 0.08 0.03 0.01 0.03 0.06 0.01 0.02 0.04 0.04 0.03 0.01 0.00 0.00 0.01 0.00 0.00 0.02 0.02 0.03 0.04 0.02 0.00 0.02 0.03 0.00 0.00 0.00 0.00 0.00
0.02 0.01 0.00 0.00 0.00 0.00 0.00 0.02 0.08 0.25 0.44 0.21 0.19 0.31 0.51 0.44 0.14 0.07 0.04 0.04 0.05 0.06 0.07 0.06 0.05 0.05 0.03 0.01 0.00 0.00 0.00 0.00 0.00 0.00 0.01 0.03 0.06 0.10 0.07 0.11 0.23 0.02 0.00 0.00 0.00 0.00 0.00
0.01 0.00 0.00 0.00 0.01 0.00 0.00 0.01 0.10 0.18 0.29 0.26 0.20 0.42 0.51 0.34 0.12 0.10 0.12 0.07 0.08 0.09 0.07 0.03 0.04 0.02 0.03 0.05 0.10 0.05 0.01 0.01 0.00 0.00 0.00 0.02 0.08 0.28 0.28 0.18 0.07 0.00 0.00 0.01 0.02 0.02 0.03
0.02 0.02 0.01 0.01 0.01 0.01 0.01 0.01 0.03 0.13 0.21 0.23 0.31 0.35 0.52 0.51 0.16 0.04 0.05 0.08 0.06 0.03 0.01 0.00 0.00 0.01 0.01 0.07 0.19 0.17 0.06 0.04 0.02 0.01 0.01 0.01 0.06 0.28 0.29 0.30 0.10 0.01 0.02 0.00 0.02 0.04 0.05
0.04 0.04 0.04 0.03 0.03 0.03 0.02 0.01 0.02 0.09 0.18 0.22 0.20 0.28 0.59 0.59 0.13 0.05 0.05 0.03 0.03 0.02 0.02 0.01 0.03 0.07 0.13 0.29 0.25 0.13 0.08 0.04 0.04 0.03 0.05 0.07 0.10 0.16 0.15 0.25 0.11 0.01 0.02 0.02 0.06 0.08 0.10
0.04 0.04 0.05 0.04 0.04 0.04 0.02 0.01 0.03 0.09 0.19 0.23 0.16 0.17 0.39 0.47 0.14 0.06 0.04 0.04 0.07 0.09 0.13 0.15 0.19 0.15 0.19 0.28 0.32 0.23 0.15 0.09 0.07 0.03 0.07 0.12 0.23 0.22 0.24 0.26 0.11 0.02 0.02 0.08 0.11 0.11 0.03
0.06 0.05 0.06 0.06 0.05 0.03 0.02 0.02 0.04 0.10 0.18 0.28 0.25 0.18 0.29 0.59 0.23 0.01 0.01 0.01 0.01 0.03 0.10 0.12 0.16 0.18 0.27 0.28 0.27 0.27 0.22 0.17 0.15 0.11 0.12 0.14 0.12 0.11 0.08 0.09 0.04 0.07 0.05 0.05 0.03 0.01 0.01

GFSGBSN_prec_precacc24_189.txt.gz
Total_Precipitation_Accumulation
0.00 0.00 0.00 0.00 0.00 0.00 0.00 0.00 0.00 0.00 0.00 0.00 0.00 0.00 0.00 0.00 0.00 0.00 0.00 0.00 0.00 0.00 0.00 0.00 0.00 0.00 0.00 0.00 0.00 0.00 0.00 0.00 0.00 0.00 0.00 0.00 0.00 0.00 0.00 0.00 0.00 0.00 0.00 0.00 0.00 0.00 0.00
0.00 0.00 0.00 0.00 0.00 0.00 0.00 0.00 0.00 0.00 0.00 0.00 0.00 0.00 0.00 0.00 0.00 0.00 0.00 0.00 0.00 0.00 0.00 0.00 0.00 0.00 0.00 0.00 0.00 0.00 0.00 0.00 0.00 0.00 0.00 0.00 0.00 0.00 0.00 0.00 0.00 0.00 0.00 0.00 0.00 0.00 0.00
0.02 0.00 0.00 0.01 0.02 0.04 0.07 0.05 0.02 0.01 0.01 0.01 0.00 0.00 0.01 0.02 0.02 0.02 0.01 0.00 0.00 0.00 0.00 0.00 0.00 0.00 0.00 0.00 0.00 0.00 0.00 0.00 0.00 0.00 0.00 0.00 0.00 0.00 0.00 0.00 0.00 0.00 0.00 0.00 0.00 0.00 0.00
0.15 0.07 0.04 0.03 0.06 0.18 0.20 0.12 0.09 0.07 0.06 0.04 0.08 0.15 0.18 0.18 0.09 0.03 0.00 0.00 0.00 0.00 0.00 0.00 0.00 0.00 0.00 0.00 0.00 0.00 0.00 0.00 0.00 0.00 0.00 0.00 0.00 0.00 0.00 0.00 0.00 0.00 0.00 0.00 0.00 0.00 0.00
0.03 0.04 0.03 0.03 0.07 0.09 0.07 0.02 0.02 0.03 0.02 0.01 0.02 0.06 0.10 0.07 0.02 0.00 0.00 0.00 0.00 0.00 0.00 0.00 0.00 0.00 0.00 0.00 0.00 0.00 0.00 0.00 0.00 0.00 0.00 0.00 0.00 0.00 0.00 0.00 0.00 0.00 0.00 0.00 0.00 0.00 0.00
0.00 0.01 0.02 0.02 0.02 0.03 0.02 0.01 0.01 0.01 0.01 0.00 0.01 0.02 0.00 0.00 0.00 0.00 0.00 0.00 0.00 0.00 0.00 0.00 0.00 0.00 0.00 0.00 0.00 0.00 0.00 0.00 0.00 0.00 0.00 0.00 0.00 0.00 0.00 0.00 0.00 0.00 0.00 0.00 0.00 0.00 0.00
0.02 0.01 0.01 0.01 0.01 0.01 0.01 0.00 0.01 0.02 0.01 0.01 0.01 0.01 0.00 0.00 0.00 0.00 0.00 0.00 0.00 0.00 0.00 0.00 0.00 0.00 0.00 0.00 0.00 0.00 0.00 0.00 0.00 0.00 0.00 0.00 0.00 0.00 0.00 0.00 0.00 0.00 0.00 0.00 0.00 0.00 0.00
0.03 0.01 0.01 0.01 0.01 0.02 0.02 0.02 0.02 0.02 0.01 0.01 0.00 0.01 0.01 0.00 0.00 0.00 0.00 0.00 0.00 0.00 0.00 0.00 0.00 0.00 0.00 0.00 0.00 0.00 0.00 0.00 0.00 0.00 0.00 0.00 0.00 0.00 0.00 0.00 0.00 0.00 0.00 0.00 0.00 0.00 0.00
0.01 0.01 0.01 0.00 0.00 0.01 0.01 0.02 0.03 0.03 0.02 0.01 0.01 0.01 0.00 0.00 0.00 0.00 0.00 0.00 0.00 0.00 0.00 0.00 0.00 0.00 0.00 0.00 0.00 0.00 0.00 0.00 0.00 0.00 0.00 0.00 0.00 0.00 0.00 0.00 0.00 0.00 0.00 0.00 0.00 0.00 0.00
0.00 0.00 0.00 0.00 0.00 0.00 0.01 0.00 0.00 0.00 0.00 0.00 0.00 0.00 0.00 0.00 0.00 0.00 0.00 0.00 0.00 0.00 0.00 0.00 0.00 0.00 0.00 0.00 0.00 0.00 0.00 0.00 0.00 0.00 0.00 0.00 0.00 0.00 0.00 0.00 0.00 0.00 0.00 0.00 0.00 0.00 0.00
0.00 0.00 0.00 0.00 0.00 0.00 0.00 0.00 0.00 0.00 0.00 0.00 0.00 0.00 0.00 0.00 0.00 0.00 0.00 0.00 0.00 0.00 0.00 0.00 0.00 0.00 0.00 0.00 0.00 0.00 0.00 0.00 0.00 0.00 0.00 0.00 0.00 0.00 0.00 0.00 0.00 0.00 0.00 0.00 0.00 0.00 0.00
0.05 0.04 0.02 0.01 0.00 0.00 0.00 0.00 0.00 0.00 0.00 0.00 0.00 0.00 0.00 0.00 0.00 0.00 0.00 0.00 0.00 0.00 0.00 0.00 0.00 0.00 0.00 0.00 0.00 0.00 0.00 0.00 0.00 0.00 0.00 0.00 0.00 0.00 0.00 0.00 0.00 0.00 0.00 0.00 0.00 0.00 0.00
0.15 0.11 0.09 0.07 0.05 0.03 0.01 0.01 0.00 0.00 0.00 0.00 0.00 0.00 0.00 0.00 0.00 0.00 0.00 0.00 0.01 0.00 0.00 0.00 0.00 0.00 0.00 0.00 0.00 0.00 0.00 0.00 0.00 0.00 0.00 0.00 0.00 0.00 0.00 0.00 0.00 0.00 0.00 0.00 0.00 0.00 0.00
0.35 0.32 0.28 0.22 0.16 0.13 0.07 0.04 0.02 0.01 0.00 0.00 0.00 0.00 0.00 0.00 0.00 0.00 0.00 0.00 0.00 0.00 0.00 0.00 0.00 0.00 0.00 0.00 0.00 0.00 0.00 0.00 0.00 0.00 0.00 0.00 0.00 0.00 0.00 0.00 0.00 0.00 0.00 0.00 0.00 0.00 0.00
0.54 0.50 0.45 0.35 0.26 0.20 0.13 0.06 0.03 0.01 0.00 0.00 0.00 0.00 0.00 0.00 0.00 0.00 0.00 0.00 0.00 0.00 0.00 0.00 0.00 0.00 0.00 0.00 0.00 0.00 0.00 0.00 0.00 0.00 0.00 0.00 0.00 0.00 0.00 0.00 0.00 0.00 0.00 0.00 0.00 0.00 0.00
0.50 0.53 0.50 0.41 0.30 0.18 0.16 0.13 0.04 0.01 0.00 0.00 0.00 0.00 0.00 0.00 0.00 0.00 0.01 0.00 0.00 0.00 0.00 0.00 0.00 0.00 0.00 0.00 0.00 0.00 0.00 0.00 0.00 0.00 0.00 0.00 0.00 0.00 0.00 0.00 0.00 0.00 0.00 0.00 0.00 0.02 0.00
0.40 0.39 0.35 0.32 0.33 0.26 0.17 0.24 0.28 0.13 0.08 0.02 0.02 0.02 0.01 0.00 0.02 0.02 0.02 0.00 0.00 0.00 0.00 0.00 0.00 0.00 0.00 0.00 0.00 0.00 0.00 0.00 0.00 0.00 0.00 0.00 0.00 0.00 0.00 0.00 0.00 0.00 0.00 0.00 0.00 0.01 0.04
0.40 0.32 0.26 0.24 0.26 0.26 0.20 0.17 0.28 0.39 0.24 0.31 0.16 0.04 0.01 0.00 0.02 0.01 0.00 0.00 0.00 0.00 0.00 0.00 0.00 0.00 0.00 0.00 0.00 0.00 0.00 0.00 0.00 0.00 0.00 0.00 0.00 0.00 0.00 0.00 0.00 0.00 0.00 0.00 0.01 0.02 0.07
0.34 0.26 0.20 0.17 0.17 0.16 0.14 0.12 0.11 0.29 0.46 0.35 0.36 0.15 0.11 0.06 0.01 0.00 0.00 0.00 0.00 0.00 0.00 0.00 0.00 0.00 0.00 0.00 0.00 0.00 0.00 0.00 0.00 0.00 0.00 0.00 0.00 0.00 0.00 0.00 0.00 0.01 0.00 0.00 0.00 0.00 0.01
0.16 0.14 0.15 0.11 0.08 0.08 0.08 0.08 0.07 0.20 0.49 0.55 0.46 0.41 0.35 0.46 0.05 0.00 0.00 0.00 0.00 0.00 0.00 0.00 0.00 0.00 0.00 0.00 0.00 0.00 0.00 0.00 0.00 0.00 0.00 0.00 0.01 0.02 0.01 0.00 0.01 0.01 0.00 0.00 0.01 0.05 0.05
0.12 0.09 0.05 0.04 0.03 0.03 0.03 0.05 0.08 0.22 0.62 0.45 0.61 0.39 0.14 0.29 0.29 0.04 0.01 0.00 0.00 0.00 0.00 0.00 0.00 0.00 0.00 0.00 0.00 0.00 0.00 0.00 0.00 0.00 0.00 0.00 0.02 0.00 0.00 0.00 0.00 0.00 0.00 0.00 0.01 0.01 0.04
0.09 0.08 0.05 0.02 0.02 0.03 0.02 0.02 0.07 0.16 0.55 0.51 0.60 0.40 0.14 0.08 0.03 0.13 0.23 0.08 0.01 0.00 0.00 0.00 0.00 0.00 0.00 0.00 0.00 0.00 0.00 0.01 0.01 0.00 0.00 0.01 0.04 0.03 0.02 0.00 0.01 0.01 0.00 0.00 0.00 0.01 0.01
0.10 0.08 0.05 0.01 0.00 0.00 0.00 0.00 0.02 0.10 0.30 0.55 0.42 0.26 0.31 0.20 0.08 0.13 0.09 0.04 0.01 0.03 0.05 0.01 0.03 0.05 0.05 0.03 0.01 0.00 0.00 0.01 0.00 0.00 0.02 0.02 0.05 0.10 0.08 0.00 0.04 0.04 0.00 0.00 0.00 0.00 0.00
0.08 0.06 0.03 0.01 0.00 0.00 0.00 0.00 0.00 0.03 0.15 0.10 0.18 0.29 0.49 0.46 0.15 0.08 0.05 0.05 0.05 0.06 0.08 0.07 0.06 0.07 0.05 0.02 0.01 0.00 0.00 0.00 0.00 0.00 0.01 0.03 0.06 0.11 0.09 0.10 0.25 0.02 0.00 0.00 0.00 0.00 0.00
0.08 0.05 0.02 0.00 0.00 0.00 0.00 0.00 0.00 0.02 0.16 0.21 0.16 0.33 0.52 0.36 0.13 0.11 0.13 0.09 0.09 0.11 0.11 0.08 0.07 0.03 0.06 0.06 0.11 0.06 0.01 0.01 0.00 0.00 0.00 0.02 0.08 0.28 0.29 0.17 0.07 0.00 0.00 0.01 0.02 0.02 0.02
0.10 0.05 0.02 0.01 0.01 0.01 0.01 0.00 0.00 0.01 0.06 0.16 0.28 0.32 0.46 0.42 0.16 0.05 0.06 0.10 0.10 0.08 0.03 0.01 0.02 0.02 0.01 0.08 0.20 0.17 0.06 0.04 0.02 0.01 0.01 0.01 0.07 0.30 0.37 0.37 0.13 0.01 0.02 0.01 0.02 0.04 0.05
0.06 0.03 0.03 0.02 0.02 0.02 0.02 0.00 0.00 0.00 0.05 0.12 0.16 0.26 0.59 0.52 0.12 0.04 0.04 0.03 0.03 0.03 0.02 0.01 0.03 0.07 0.13 0.29 0.25 0.13 0.08 0.04 0.04 0.03 0.05 0.08 0.13 0.21 0.23 0.36 0.17 0.02 0.02 0.03 0.14 0.14 0.11
0.03 0.03 0.03 0.03 0.03 0.03 0.02 0.00 0.00 0.01 0.03 0.12 0.12 0.12 0.31 0.43 0.12 0.05 0.03 0.03 0.06 0.09 0.13 0.14 0.15 0.13 0.21 0.32 0.38 0.25 0.17 0.11 0.07 0.03 0.06 0.11 0.21 0.23 0.27 0.32 0.16 0.05 0.05 0.08 0.12 0.13 0.07
0.05 0.04 0.04 0.04 0.03 0.03 0.02 0.01 0.01 0.01 0.04 0.12 0.12 0.11 0.21 0.53 0.22 0.01 0.01 0.00 0.01 0.03 0.09 0.11 0.14 0.18 0.33 0.36 0.36 0.37 0.30 0.20 0.18 0.15 0.13 0.17 0.19 0.23 0.16 0.13 0.07 0.09 0.07 0.05 0.02 0.01 0.01

GFSGBSN_prec_precacc24_192.txt.gz
Total_Precipitation_Accumulation
0.00 0.00 0.00 0.00 0.00 0.00 0.00 0.00 0.00 0.00 0.00 0.00 0.00 0.00 0.00 0.00 0.00 0.00 0.00 0.00 0.00 0.00 0.00 0.00 0.00 0.00 0.00 0.00 0.00 0.00 0.00 0.00 0.00 0.00 0.00 0.00 0.00 0.00 0.00 0.00 0.00 0.00 0.00 0.00 0.00 0.00 0.00
0.00 0.00 0.00 0.00 0.00 0.00 0.00 0.00 0.00 0.00 0.00 0.00 0.00 0.00 0.00 0.00 0.00 0.00 0.00 0.00 0.00 0.00 0.00 0.00 0.00 0.00 0.00 0.00 0.00 0.00 0.00 0.00 0.00 0.00 0.00 0.00 0.00 0.00 0.00 0.00 0.00 0.00 0.00 0.00 0.00 0.00 0.00
0.02 0.00 0.00 0.00 0.00 0.01 0.01 0.00 0.00 0.00 0.00 0.00 0.00 0.00 0.00 0.00 0.01 0.01 0.00 0.00 0.00 0.00 0.00 0.00 0.00 0.00 0.00 0.00 0.00 0.00 0.00 0.00 0.00 0.00 0.00 0.00 0.00 0.00 0.00 0.00 0.00 0.00 0.00 0.00 0.00 0.00 0.00
0.15 0.07 0.04 0.02 0.02 0.06 0.04 0.02 0.03 0.02 0.01 0.01 0.01 0.00 0.00 0.00 0.00 0.00 0.00 0.00 0.00 0.00 0.00 0.00 0.00 0.00 0.00 0.00 0.00 0.00 0.00 0.00 0.00 0.00 0.00 0.00 0.00 0.00 0.00 0.00 0.00 0.00 0.00 0.00 0.00 0.00 0.00
0.03 0.04 0.03 0.03 0.05 0.07 0.03 0.01 0.01 0.01 0.01 0.01 0.00 0.00 0.00 0.00 0.00 0.00 0.00 0.00 0.00 0.00 0.00 0.00 0.00 0.00 0.00 0.00 0.00 0.00 0.00 0.00 0.00 0.00 0.00 0.00 0.00 0.00 0.00 0.00 0.00 0.00 0.00 0.00 0.00 0.00 0.00
0.00 0.01 0.01 0.02 0.02 0.02 0.01 0.01 0.00 0.00 0.00 0.00 0.00 0.00 0.00 0.00 0.00 0.00 0.00 0.00 0.00 0.00 0.00 0.00 0.00 0.00 0.00 0.00 0.00 0.00 0.00 0.00 0.00 0.00 0.00 0.00 0.00 0.00 0.00 0.00 0.00 0.00 0.00 0.00 0.00 0.00 0.00
0.01 0.01 0.01 0.01 0.01 0.01 0.01 0.00 0.00 0.00 0.00 0.00 0.00 0.00 0.00 0.00 0.00 0.00 0.00 0.00 0.00 0.00 0.00 0.00 0.00 0.00 0.00 0.00 0.00 0.00 0.00 0.00 0.00 0.00 0.00 0.00 0.00 0.00 0.00 0.00 0.00 0.00 0.00 0.00 0.00 0.00 0.00
0.02 0.01 0.01 0.01 0.01 0.02 0.02 0.02 0.02 0.01 0.00 0.00 0.00 0.00 0.00 0.00 0.00 0.00 0.00 0.00 0.00 0.00 0.00 0.00 0.00 0.00 0.00 0.00 0.00 0.00 0.00 0.00 0.00 0.00 0.00 0.00 0.00 0.00 0.00 0.00 0.00 0.00 0.00 0.00 0.00 0.00 0.00
0.00 0.01 0.01 0.00 0.00 0.01 0.02 0.02 0.03 0.03 0.02 0.01 0.00 0.00 0.00 0.00 0.00 0.00 0.00 0.00 0.00 0.00 0.00 0.00 0.00 0.00 0.00 0.00 0.00 0.00 0.00 0.00 0.00 0.00 0.00 0.00 0.00 0.00 0.00 0.00 0.00 0.00 0.00 0.00 0.00 0.00 0.00
0.00 0.00 0.00 0.01 0.00 0.00 0.01 0.01 0.01 0.01 0.01 0.00 0.00 0.00 0.00 0.00 0.00 0.00 0.00 0.00 0.00 0.00 0.00 0.00 0.00 0.00 0.00 0.00 0.00 0.00 0.00 0.00 0.00 0.00 0.00 0.00 0.00 0.00 0.00 0.00 0.00 0.00 0.00 0.00 0.00 0.00 0.00
0.00 0.00 0.01 0.01 0.01 0.00 0.00 0.00 0.01 0.01 0.00 0.00 0.00 0.00 0.00 0.00 0.00 0.00 0.00 0.00 0.00 0.00 0.00 0.00 0.00 0.00 0.00 0.00 0.00 0.00 0.00 0.00 0.00 0.00 0.00 0.00 0.00 0.00 0.00 0.00 0.00 0.00 0.00 0.00 0.00 0.00 0.00
0.06 0.04 0.02 0.02 0.01 0.01 0.00 0.00 0.00 0.00 0.00 0.00 0.00 0.00 0.00 0.00 0.00 0.00 0.00 0.00 0.00 0.00 0.00 0.00 0.00 0.00 0.00 0.00 0.00 0.00 0.00 0.00 0.00 0.00 0.00 0.00 0.00 0.00 0.00 0.00 0.00 0.00 0.00 0.00 0.00 0.00 0.00
0.17 0.13 0.10 0.07 0.06 0.05 0.03 0.03 0.03 0.02 0.02 0.01 0.01 0.00 0.00 0.00 0.00 0.00 0.00 0.00 0.00 0.00 0.00 0.00 0.00 0.00 0.00 0.00 0.00 0.00 0.00 0.00 0.00 0.00 0.00 0.00 0.00 0.00 0.00 0.00 0.00 0.00 0.00 0.00 0.00 0.00 0.00
0.36 0.34 0.31 0.27 0.24 0.21 0.17 0.14 0.13 0.13 0.09 0.06 0.03 0.00 0.00 0.00 0.00 0.00 0.00 0.00 0.00 0.00 0.00 0.00 0.00 0.00 0.00 0.00 0.00 0.00 0.00 0.00 0.00 0.00 0.00 0.00 0.00 0.00 0.00 0.00 0.00 0.00 0.00 0.00 0.00 0.00 0.00
0.54 0.51 0.47 0.45 0.44 0.42 0.40 0.37 0.31 0.21 0.12 0.07 0.02 0.00 0.00 0.00 0.00 0.00 0.00 0.00 0.00 0.00 0.00 0.00 0.00 0.00 0.00 0.00 0.00 0.00 0.00 0.00 0.00 0.00 0.00 0.00 0.00 0.00 0.00 0.00 0.00 0.00 0.00 0.00 0.00 0.00 0.00
0.52 0.57 0.59 0.58 0.58 0.52 0.52 0.50 0.38 0.28 0.15 0.05 0.02 0.01 0.01 0.00 0.00 0.00 0.01 0.00 0.00 0.00 0.00 0.00 0.00 0.00 0.00 0.00 0.00 0.00 0.00 0.00 0.00 0.00 0.00 0.00 0.00 0.00 0.00 0.00 0.00 0.00 0.00 0.00 0.00 0.02 0.00
0.47 0.49 0.51 0.56 0.61 0.57 0.48 0.54 0.52 0.32 0.22 0.08 0.08 0.12 0.10 0.02 0.00 0.01 0.02 0.00 0.00 0.00 0.00 0.00 0.00 0.00 0.00 0.00 0.00 0.00 0.00 0.00 0.00 0.00 0.00 0.00 0.00 0.00 0.00 0.00 0.00 0.00 0.00 0.00 0.00 0.01 0.04
0.55 0.48 0.45 0.46 0.47 0.47 0.41 0.36 0.42 0.51 0.27 0.25 0.29 0.21 0.15 0.04 0.03 0.02 0.00 0.00 0.00 0.00 0.00 0.00 0.00 0.00 0.00 0.00 0.00 0.00 0.00 0.00 0.00 0.00 0.00 0.00 0.00 0.00 0.00 0.00 0.00 0.00 0.00 0.00 0.01 0.02 0.07
0.57 0.53 0.45 0.40 0.37 0.33 0.27 0.25 0.24 0.35 0.42 0.23 0.36 0.23 0.15 0.08 0.05 0.01 0.00 0.00 0.00 0.00 0.00 0.01 0.00 0.00 0.00 0.00 0.00 0.00 0.00 0.00 0.00 0.00 0.00 0.00 0.00 0.00 0.00 0.00 0.00 0.01 0.00 0.00 0.00 0.01 0.02
0.38 0.34 0.37 0.37 0.34 0.29 0.25 0.23 0.19 0.25 0.44 0.38 0.30 0.34 0.34 0.34 0.04 0.01 0.01 0.00 0.00 0.00 0.00 0.00 0.00 0.00 0.00 0.00 0.00 0.00 0.00 0.00 0.00 0.00 0.00 0.00 0.01 0.02 0.01 0.00 0.01 0.01 0.00 0.00 0.01 0.05 0.06
0.37 0.34 0.29 0.25 0.22 0.22 0.24 0.25 0.23 0.27 0.55 0.37 0.46 0.22 0.08 0.23 0.22 0.04 0.01 0.01 0.00 0.00 0.00 0.00 0.00 0.00 0.00 0.00 0.00 0.00 0.00 0.00 0.00 0.00 0.00 0.00 0.02 0.00 0.00 0.00 0.00 0.00 0.00 0.00 0.01 0.01 0.05
0.32 0.28 0.23 0.22 0.22 0.24 0.23 0.19 0.19 0.23 0.48 0.41 0.54 0.36 0.10 0.07 0.05 0.12 0.22 0.08 0.01 0.00 0.00 0.00 0.00 0.00 0.00 0.00 0.00 0.00 0.00 0.01 0.01 0.00 0.00 0.01 0.04 0.03 0.02 0.00 0.01 0.01 0.00 0.00 0.00 0.01 0.01
0.35 0.30 0.24 0.18 0.17 0.17 0.17 0.13 0.15 0.19 0.21 0.35 0.36 0.24 0.26 0.21 0.09 0.14 0.10 0.03 0.01 0.03 0.04 0.01 0.03 0.05 0.04 0.03 0.01 0.00 0.00 0.01 0.00 0.00 0.02 0.03 0.06 0.16 0.14 0.01 0.05 0.06 0.00 0.00 0.00 0.00 0.00
0.32 0.29 0.23 0.18 0.14 0.13 0.10 0.08 0.08 0.12 0.14 0.10 0.16 0.25 0.31 0.36 0.15 0.08 0.05 0.05 0.05 0.06 0.08 0.06 0.05 0.07 0.05 0.02 0.01 0.00 0.00 0.00 0.00 0.00 0.01 0.03 0.06 0.13 0.12 0.11 0.26 0.03 0.00 0.00 0.00 0.00 0.00
0.26 0.18 0.12 0.08 0.07 0.05 0.04 0.04 0.06 0.08 0.09 0.13 0.15 0.23 0.36 0.31 0.12 0.10 0.13 0.09 0.09 0.11 0.11 0.08 0.06 0.03 0.06 0.09 0.14 0.07 0.01 0.01 0.00 0.00 0.00 0.02 0.08 0.28 0.29 0.18 0.08 0.00 0.00 0.01 0.03 0.02 0.02
0.26 0.17 0.08 0.03 0.01 0.01 0.01 0.01 0.01 0.01 0.03 0.04 0.20 0.20 0.26 0.30 0.15 0.04 0.06 0.10 0.10 0.08 0.03 0.01 0.01 0.02 0.03 0.12 0.26 0.22 0.07 0.04 0.02 0.01 0.01 0.01 0.07 0.31 0.38 0.43 0.14 0.01 0.02 0.01 0.03 0.04 0.05
0.20 0.12 0.04 0.01 0.01 0.01 0.01 0.00 0.00 0.00 0.02 0.02 0.07 0.18 0.45 0.38 0.09 0.02 0.03 0.03 0.03 0.03 0.02 0.01 0.03 0.07 0.14 0.37 0.31 0.14 0.08 0.04 0.05 0.03 0.04 0.08 0.13 0.22 0.27 0.50 0.30 0.05 0.03 0.04 0.17 0.15 0.16
0.11 0.05 0.02 0.01 0.01 0.01 0.01 0.00 0.00 0.01 0.02 0.04 0.05 0.04 0.20 0.31 0.08 0.03 0.03 0.03 0.06 0.09 0.13 0.14 0.14 0.13 0.22 0.38 0.50 0.34 0.22 0.12 0.08 0.03 0.05 0.10 0.17 0.19 0.26 0.32 0.18 0.07 0.08 0.12 0.17 0.16 0.09
0.07 0.03 0.02 0.01 0.01 0.01 0.01 0.00 0.01 0.01 0.02 0.06 0.04 0.02 0.08 0.29 0.14 0.01 0.00 0.00 0.01 0.03 0.09 0.09 0.14 0.17 0.33 0.39 0.39 0.41 0.34 0.23 0.19 0.14 0.11 0.15 0.23 0.34 0.33 0.25 0.16 0.13 0.15 0.10 0.03 0.01 0.01

GFSGBSN_prec_precacc24_198.txt.gz
Total_Precipitation_Accumulation
0.00 0.00 0.00 0.00 0.00 0.00 0.00 0.00 0.00 0.00 0.00 0.00 0.00 0.00 0.00 0.00 0.00 0.00 0.00 0.00 0.00 0.00 0.00 0.00 0.00 0.00 0.00 0.00 0.00 0.00 0.00 0.00 0.00 0.00 0.00 0.00 0.00 0.00 0.00 0.00 0.00 0.00 0.00 0.00 0.00 0.00 0.00
0.00 0.00 0.00 0.00 0.00 0.00 0.00 0.00 0.00 0.00 0.00 0.00 0.00 0.00 0.00 0.00 0.00 0.00 0.00 0.00 0.00 0.00 0.00 0.00 0.00 0.00 0.00 0.00 0.00 0.00 0.00 0.00 0.00 0.00 0.00 0.00 0.00 0.00 0.00 0.00 0.00 0.00 0.00 0.00 0.00 0.00 0.00
0.02 0.00 0.00 0.00 0.00 0.00 0.00 0.00 0.00 0.00 0.00 0.00 0.00 0.00 0.00 0.00 0.00 0.00 0.00 0.00 0.00 0.00 0.00 0.00 0.00 0.00 0.00 0.00 0.00 0.00 0.00 0.00 0.00 0.00 0.00 0.00 0.00 0.00 0.00 0.00 0.00 0.00 0.00 0.00 0.00 0.00 0.00
0.15 0.07 0.03 0.01 0.00 0.00 0.00 0.00 0.00 0.00 0.00 0.00 0.00 0.00 0.00 0.00 0.00 0.00 0.00 0.00 0.00 0.00 0.00 0.00 0.00 0.00 0.00 0.00 0.00 0.00 0.00 0.00 0.00 0.00 0.00 0.00 0.00 0.00 0.00 0.00 0.00 0.00 0.00 0.00 0.00 0.00 0.00
0.03 0.04 0.03 0.03 0.03 0.02 0.01 0.00 0.00 0.00 0.00 0.00 0.00 0.00 0.00 0.00 0.00 0.00 0.00 0.00 0.00 0.00 0.00 0.00 0.00 0.00 0.00 0.00 0.00 0.00 0.00 0.00 0.00 0.00 0.00 0.00 0.00 0.00 0.00 0.00 0.00 0.00 0.00 0.00 0.00 0.00 0.00
0.00 0.01 0.01 0.01 0.01 0.01 0.01 0.01 0.00 0.00 0.00 0.00 0.00 0.00 0.00 0.00 0.00 0.00 0.00 0.00 0.00 0.00 0.00 0.00 0.00 0.00 0.00 0.00 0.00 0.00 0.00 0.00 0.00 0.00 0.00 0.00 0.00 0.00 0.00 0.00 0.00 0.00 0.00 0.00 0.00 0.00 0.00
0.01 0.01 0.01 0.01 0.01 0.01 0.01 0.00 0.00 0.00 0.00 0.00 0.00 0.00 0.00 0.00 0.00 0.00 0.00 0.00 0.00 0.00 0.00 0.00 0.00 0.00 0.00 0.00 0.00 0.00 0.00 0.00 0.00 0.00 0.00 0.00 0.00 0.00 0.00 0.00 0.00 0.00 0.00 0.00 0.00 0.00 0.00
0.00 0.00 0.01 0.01 0.01 0.02 0.02 0.01 0.01 0.00 0.00 0.00 0.00 0.00 0.00 0.00 0.00 0.00 0.00 0.00 0.00 0.00 0.00 0.00 0.00 0.00 0.00 0.00 0.00 0.00 0.00 0.00 0.00 0.00 0.00 0.00 0.00 0.00 0.00 0.00 0.00 0.00 0.00 0.00 0.00 0.00 0.00
0.00 0.00 0.00 0.00 0.00 0.01 0.02 0.02 0.03 0.02 0.01 0.00 0.00 0.00 0.00 0.00 0.00 0.00 0.00 0.00 0.00 0.00 0.00 0.00 0.00 0.00 0.00 0.00 0.00 0.00 0.00 0.00 0.00 0.00 0.00 0.00 0.00 0.00 0.00 0.00 0.00 0.00 0.00 0.00 0.00 0.00 0.00
0.00 0.00 0.00 0.00 0.00 0.00 0.01 0.01 0.01 0.01 0.01 0.00 0.00 0.00 0.00 0.00 0.00 0.00 0.00 0.00 0.00 0.00 0.00 0.00 0.00 0.00 0.00 0.00 0.00 0.00 0.00 0.00 0.00 0.00 0.00 0.00 0.00 0.00 0.00 0.00 0.00 0.00 0.00 0.00 0.00 0.00 0.00
0.01 0.01 0.01 0.01 0.01 0.01 0.01 0.01 0.01 0.01 0.00 0.00 0.00 0.00 0.00 0.00 0.00 0.00 0.00 0.00 0.00 0.00 0.00 0.00 0.00 0.00 0.00 0.00 0.00 0.00 0.00 0.00 0.00 0.00 0.00 0.00 0.00 0.00 0.00 0.00 0.00 0.00 0.00 0.00 0.00 0.00 0.00
0.11 0.08 0.04 0.02 0.01 0.01 0.01 0.02 0.01 0.01 0.01 0.00 0.00 0.00 0.01 0.00 0.00 0.00 0.00 0.00 0.00 0.00 0.00 0.00 0.00 0.00 0.00 0.00 0.00 0.00 0.00 0.00 0.00 0.00 0.00 0.00 0.00 0.00 0.00 0.00 0.00 0.00 0.00 0.00 0.00 0.00 0.00
0.22 0.18 0.16 0.12 0.09 0.07 0.04 0.04 0.05 0.05 0.05 0.06 0.07 0.07 0.05 0.02 0.00 0.01 0.01 0.00 0.01 0.00 0.00 0.00 0.00 0.00 0.00 0.00 0.00 0.00 0.00 0.00 0.00 0.00 0.00 0.00 0.00 0.00 0.00 0.00 0.00 0.00 0.00 0.00 0.00 0.00 0.00
0.39 0.37 0.33 0.30 0.27 0.23 0.19 0.16 0.16 0.16 0.16 0.19 0.25 0.32 0.21 0.06 0.00 0.01 0.05 0.08 0.07 0.00 0.00 0.00 0.00 0.00 0.00 0.00 0.00 0.00 0.00 0.00 0.00 0.00 0.00 0.00 0.00 0.00 0.00 0.00 0.00 0.00 0.00 0.00 0.00 0.00 0.00
0.57 0.55 0.51 0.48 0.47 0.47 0.44 0.43 0.42 0.40 0.41 0.51 0.78 0.84 0.45 0.15 0.06 0.07 0.14 0.17 0.04 0.00 0.00 0.00 0.00 0.00 0.00 0.00 0.00 0.00 0.00 0.00 0.00 0.00 0.00 0.00 0.00 0.00 0.00 0.00 0.00 0.00 0.00 0.00 0.00 0.00 0.00
0.53 0.58 0.62 0.63 0.62 0.56 0.57 0.59 0.61 0.70 0.81 0.87 0.82 0.72 0.44 0.17 0.17 0.19 0.27 0.16 0.01 0.00 0.00 0.00 0.00 0.00 0.00 0.00 0.00 0.00 0.00 0.00 0.00 0.00 0.00 0.00 0.00 0.00 0.00 0.00 0.00 0.00 0.00 0.00 0.00 0.02 0.00
0.47 0.50 0.52 0.58 0.64 0.62 0.55 0.60 0.65 0.77 0.87 0.85 0.86 0.85 0.61 0.32 0.32 0.36 0.31 0.08 0.00 0.00 0.01 0.00 0.00 0.00 0.00 0.00 0.00 0.00 0.00 0.00 0.00 0.00 0.00 0.00 0.00 0.00 0.00 0.00 0.00 0.00 0.00 0.00 0.00 0.01 0.04
0.54 0.48 0.46 0.47 0.50 0.51 0.48 0.49 0.56 0.62 0.54 0.65 0.77 0.69 0.61 0.30 0.33 0.40 0.17 0.03 0.00 0.00 0.01 0.00 0.00 0.00 0.00 0.00 0.00 0.00 0.00 0.00 0.00 0.00 0.00 0.00 0.00 0.00 0.00 0.00 0.00 0.00 0.00 0.00 0.00 0.02 0.06
0.56 0.53 0.46 0.42 0.41 0.41 0.37 0.38 0.43 0.45 0.31 0.31 0.54 0.69 0.92 0.48 0.38 0.25 0.07 0.02 0.01 0.01 0.01 0.01 0.00 0.00 0.00 0.00 0.00 0.00 0.00 0.00 0.00 0.00 0.00 0.00 0.00 0.00 0.00 0.00 0.00 0.00 0.00 0.00 0.00 0.00 0.03
0.39 0.35 0.39 0.41 0.40 0.38 0.38 0.42 0.42 0.39 0.32 0.35 0.64 1.00 1.33 0.88 0.25 0.08 0.06 0.06 0.06 0.02 0.02 0.02 0.01 0.01 0.01 0.00 0.00 0.00 0.00 0.00 0.00 0.00 0.00 0.00 0.00 0.02 0.01 0.00 0.00 0.00 0.00 0.00 0.00 0.06 0.07
0.40 0.38 0.34 0.32 0.31 0.33 0.36 0.39 0.44 0.48 0.61 0.55 0.83 0.75 0.58 0.53 0.22 0.05 0.04 0.09 0.09 0.11 0.08 0.05 0.06 0.04 0.03 0.04 0.01 0.00 0.00 0.00 0.00 0.00 0.00 0.00 0.01 0.00 0.00 0.00 0.00 0.00 0.00 0.00 0.00 0.01 0.05
0.38 0.39 0.36 0.35 0.37 0.39 0.39 0.37 0.38 0.44 0.65 0.66 0.95 0.82 0.47 0.25 0.14 0.16 0.19 0.19 0.14 0.13 0.13 0.10 0.07 0.03 0.03 0.02 0.00 0.00 0.00 0.01 0.01 0.00 0.00 0.01 0.03 0.03 0.02 0.00 0.01 0.01 0.00 0.00 0.00 0.00 0.00
0.48 0.41 0.41 0.36 0.33 0.40 0.45 0.47 0.50 0.54 0.48 0.64 0.64 0.43 0.39 0.53 0.42 0.42 0.30 0.15 0.14 0.17 0.19 0.11 0.10 0.12 0.07 0.04 0.02 0.01 0.00 0.01 0.00 0.00 0.02 0.03 0.08 0.19 0.18 0.01 0.09 0.11 0.00 0.00 0.00 0.00 0.00
0.56 0.51 0.41 0.44 0.49 0.48 0.48 0.49 0.52 0.56 0.43 0.23 0.30 0.37 0.46 0.67 0.44 0.35 0.20 0.18 0.18 0.21 0.21 0.14 0.08 0.09 0.06 0.02 0.01 0.00 0.00 0.00 0.00 0.00 0.01 0.03 0.06 0.17 0.16 0.12 0.31 0.03 0.00 0.00 0.00 0.00 0.00
0.61 0.57 0.52 0.47 0.51 0.64 0.67 0.70 0.75 0.74 0.55 0.37 0.36 0.41 0.55 0.60 0.45 0.44 0.38 0.30 0.27 0.26 0.21 0.14 0.09 0.03 0.04 0.05 0.08 0.03 0.00 0.01 0.00 0.00 0.00 0.01 0.08 0.34 0.39 0.24 0.11 0.00 0.00 0.01 0.03 0.02 0.02
0.64 0.59 0.56 0.51 0.48 0.49 0.60 0.70 0.66 0.58 0.43 0.31 0.44 0.42 0.48 0.50 0.45 0.28 0.26 0.25 0.24 0.20 0.11 0.06 0.02 0.01 0.02 0.10 0.20 0.14 0.03 0.03 0.02 0.01 0.00 0.01 0.06 0.33 0.45 0.50 0.16 0.01 0.02 0.02 0.07 0.06 0.05
0.64 0.53 0.45 0.43 0.46 0.45 0.40 0.39 0.43 0.43 0.31 0.22 0.32 0.32 0.43 0.34 0.20 0.12 0.10 0.11 0.10 0.07 0.04 0.02 0.03 0.05 0.11 0.25 0.27 0.13 0.07 0.04 0.05 0.03 0.04 0.07 0.12 0.23 0.28 0.55 0.32 0.06 0.04 0.09 0.27 0.19 0.17
0.62 0.51 0.39 0.36 0.35 0.37 0.36 0.31 0.28 0.24 0.21 0.20 0.26 0.11 0.08 0.08 0.07 0.05 0.05 0.04 0.06 0.08 0.11 0.14 0.12 0.12 0.21 0.32 0.35 0.27 0.23 0.15 0.11 0.04 0.05 0.09 0.17 0.19 0.28 0.34 0.21 0.10 0.11 0.18 0.22 0.18 0.13
0.55 0.46 0.37 0.33 0.28 0.26 0.26 0.23 0.17 0.13 0.10 0.08 0.10 0.03 0.02 0.03 0.02 0.01 0.00 0.00 0.00 0.01 0.05 0.08 0.12 0.16 0.33 0.39 0.40 0.41 0.37 0.25 0.24 0.15 0.07 0.14 0.21 0.36 0.44 0.30 0.21 0.22 0.22 0.13 0.05 0.03 0.03

GFSGBSN_prec_precacc24_201.txt.gz
Total_Precipitation_Accumulation
0.00 0.00 0.00 0.00 0.00 0.00 0.00 0.00 0.00 0.00 0.00 0.00 0.00 0.00 0.00 0.00 0.00 0.00 0.00 0.00 0.00 0.00 0.00 0.00 0.00 0.00 0.00 0.00 0.00 0.00 0.00 0.00 0.00 0.00 0.00 0.00 0.00 0.00 0.00 0.00 0.00 0.00 0.00 0.00 0.00 0.00 0.00
0.00 0.00 0.00 0.00 0.00 0.00 0.00 0.00 0.00 0.00 0.00 0.00 0.00 0.00 0.00 0.00 0.00 0.00 0.00 0.00 0.00 0.00 0.00 0.00 0.00 0.00 0.00 0.00 0.00 0.00 0.00 0.00 0.00 0.00 0.00 0.00 0.00 0.00 0.00 0.00 0.00 0.00 0.00 0.00 0.00 0.00 0.00
0.02 0.00 0.00 0.00 0.00 0.00 0.00 0.00 0.00 0.00 0.00 0.00 0.00 0.00 0.00 0.00 0.00 0.00 0.00 0.00 0.00 0.00 0.00 0.00 0.00 0.00 0.00 0.00 0.00 0.00 0.00 0.00 0.00 0.00 0.00 0.00 0.00 0.00 0.00 0.00 0.00 0.00 0.00 0.00 0.00 0.00 0.00
0.13 0.07 0.02 0.01 0.00 0.00 0.00 0.00 0.00 0.00 0.00 0.00 0.00 0.00 0.00 0.00 0.00 0.00 0.00 0.00 0.00 0.00 0.00 0.00 0.00 0.00 0.00 0.00 0.00 0.00 0.00 0.00 0.00 0.00 0.00 0.00 0.00 0.00 0.00 0.00 0.00 0.00 0.00 0.00 0.00 0.00 0.00
0.03 0.04 0.03 0.02 0.02 0.02 0.01 0.00 0.00 0.00 0.00 0.00 0.00 0.00 0.00 0.00 0.00 0.00 0.00 0.00 0.00 0.00 0.00 0.00 0.00 0.00 0.00 0.00 0.00 0.00 0.00 0.00 0.00 0.00 0.00 0.00 0.00 0.00 0.00 0.00 0.00 0.00 0.00 0.00 0.00 0.00 0.00
0.00 0.01 0.01 0.01 0.01 0.01 0.01 0.01 0.00 0.00 0.00 0.00 0.00 0.00 0.00 0.00 0.00 0.00 0.00 0.00 0.00 0.00 0.00 0.00 0.00 0.00 0.00 0.00 0.00 0.00 0.00 0.00 0.00 0.00 0.00 0.00 0.00 0.00 0.00 0.00 0.00 0.00 0.00 0.00 0.00 0.00 0.00
0.00 0.00 0.00 0.01 0.01 0.01 0.01 0.00 0.00 0.00 0.00 0.00 0.00 0.00 0.00 0.00 0.00 0.00 0.00 0.00 0.00 0.00 0.00 0.00 0.00 0.00 0.00 0.00 0.00 0.00 0.00 0.00 0.00 0.00 0.00 0.00 0.00 0.00 0.00 0.00 0.00 0.00 0.00 0.00 0.00 0.00 0.00
0.00 0.00 0.01 0.01 0.01 0.02 0.02 0.01 0.01 0.00 0.00 0.00 0.00 0.00 0.00 0.00 0.00 0.00 0.00 0.00 0.00 0.00 0.00 0.00 0.00 0.00 0.00 0.00 0.00 0.00 0.00 0.00 0.00 0.00 0.00 0.00 0.00 0.00 0.00 0.00 0.00 0.00 0.00 0.00 0.00 0.00 0.00
0.00 0.00 0.00 0.00 0.00 0.01 0.02 0.02 0.03 0.02 0.01 0.00 0.00 0.00 0.00 0.00 0.00 0.00 0.00 0.00 0.00 0.00 0.00 0.00 0.00 0.00 0.00 0.00 0.00 0.00 0.00 0.00 0.00 0.00 0.00 0.00 0.00 0.00 0.00 0.00 0.00 0.00 0.00 0.00 0.00 0.00 0.00
0.00 0.00 0.00 0.00 0.00 0.00 0.01 0.01 0.01 0.01 0.01 0.00 0.00 0.00 0.00 0.00 0.00 0.00 0.00 0.00 0.00 0.00 0.00 0.00 0.00 0.00 0.00 0.00 0.00 0.00 0.00 0.00 0.00 0.00 0.00 0.00 0.00 0.00 0.00 0.00 0.00 0.00 0.00 0.00 0.00 0.00 0.00
0.05 0.02 0.01 0.01 0.01 0.01 0.01 0.01 0.01 0.01 0.00 0.00 0.00 0.00 0.00 0.00 0.00 0.00 0.00 0.00 0.00 0.00 0.00 0.00 0.00 0.00 0.00 0.00 0.00 0.00 0.00 0.00 0.00 0.00 0.00 0.00 0.00 0.00 0.00 0.00 0.00 0.00 0.00 0.00 0.00 0.00 0.00
0.15 0.11 0.06 0.03 0.02 0.01 0.01 0.02 0.01 0.01 0.01 0.01 0.01 0.01 0.02 0.01 0.00 0.00 0.00 0.00 0.00 0.01 0.00 0.00 0.00 0.00 0.00 0.00 0.00 0.00 0.00 0.00 0.00 0.00 0.00 0.00 0.00 0.00 0.00 0.00 0.00 0.00 0.00 0.00 0.00 0.00 0.00
0.22 0.19 0.18 0.14 0.11 0.08 0.05 0.04 0.05 0.05 0.06 0.07 0.10 0.13 0.11 0.04 0.02 0.02 0.03 0.05 0.07 0.04 0.00 0.00 0.00 0.00 0.00 0.00 0.00 0.00 0.00 0.00 0.00 0.00 0.00 0.00 0.00 0.00 0.00 0.00 0.00 0.00 0.00 0.00 0.00 0.00 0.00
0.39 0.37 0.33 0.31 0.29 0.26 0.22 0.18 0.16 0.16 0.16 0.19 0.28 0.43 0.43 0.21 0.09 0.11 0.17 0.27 0.18 0.02 0.00 0.00 0.00 0.00 0.00 0.00 0.00 0.00 0.00 0.00 0.00 0.00 0.00 0.00 0.00 0.00 0.00 0.00 0.00 0.00 0.00 0.00 0.00 0.00 0.00
0.57 0.55 0.51 0.48 0.48 0.47 0.45 0.46 0.45 0.43 0.42 0.53 0.89 1.21 0.96 0.40 0.32 0.36 0.47 0.52 0.12 0.00 0.00 0.00 0.00 0.00 0.00 0.00 0.00 0.00 0.00 0.00 0.00 0.00 0.00 0.00 0.00 0.00 0.00 0.00 0.00 0.00 0.00 0.00 0.00 0.00 0.00
0.53 0.58 0.62 0.63 0.63 0.56 0.57 0.60 0.64 0.76 0.90 1.04 1.20 1.16 0.69 0.28 0.46 0.63 0.79 0.43 0.02 0.00 0.00 0.00 0.00 0.00 0.00 0.00 0.00 0.00 0.00 0.00 0.00 0.00 0.00 0.00 0.00 0.00 0.00 0.00 0.00 0.00 0.00 0.00 0.00 0.02 0.00
0.47 0.50 0.52 0.58 0.65 0.64 0.57 0.59 0.64 0.80 1.09 1.42 1.81 1.59 1.01 0.45 0.77 1.04 0.74 0.19 0.01 0.00 0.01 0.00 0.00 0.00 0.00 0.00 0.00 0.00 0.00 0.00 0.00 0.00 0.00 0.00 0.00 0.00 0.00 0.00 0.00 0.00 0.00 0.00 0.00 0.01 0.04
0.54 0.48 0.46 0.47 0.50 0.51 0.49 0.52 0.57 0.64 0.81 1.23 1.43 1.30 1.05 0.51 0.76 0.86 0.35 0.04 0.01 0.01 0.01 0.00 0.00 0.00 0.00 0.00 0.00 0.00 0.00 0.00 0.00 0.00 0.00 0.00 0.00 0.00 0.00 0.00 0.00 0.00 0.00 0.00 0.01 0.01 0.05
0.55 0.52 0.45 0.42 0.41 0.41 0.37 0.39 0.46 0.53 0.53 0.62 0.94 1.12 1.46 0.85 0.67 0.49 0.14 0.03 0.02 0.01 0.01 0.01 0.00 0.00 0.00 0.00 0.00 0.00 0.00 0.00 0.00 0.00 0.00 0.00 0.00 0.00 0.00 0.00 0.00 0.00 0.00 0.00 0.00 0.00 0.03
0.39 0.35 0.38 0.40 0.40 0.38 0.38 0.42 0.46 0.44 0.38 0.51 0.93 1.45 1.80 1.23 0.39 0.14 0.08 0.10 0.09 0.03 0.03 0.02 0.01 0.02 0.02 0.02 0.01 0.01 0.00 0.00 0.00 0.00 0.00 0.00 0.00 0.00 0.00 0.00 0.00 0.00 0.00 0.00 0.01 0.06 0.07
0.40 0.38 0.35 0.32 0.31 0.33 0.37 0.40 0.45 0.49 0.67 0.87 1.20 1.28 0.98 0.79 0.32 0.07 0.04 0.11 0.13 0.14 0.12 0.08 0.10 0.06 0.05 0.09 0.11 0.12 0.05 0.03 0.01 0.00 0.00 0.00 0.00 0.00 0.00 0.00 0.00 0.00 0.00 0.00 0.00 0.01 0.04
0.38 0.39 0.35 0.35 0.37 0.39 0.40 0.37 0.39 0.46 0.68 1.04 1.46 1.30 0.81 0.40 0.17 0.17 0.23 0.25 0.18 0.16 0.17 0.20 0.15 0.09 0.14 0.17 0.11 0.11 0.08 0.09 0.04 0.01 0.00 0.01 0.04 0.03 0.02 0.00 0.00 0.00 0.00 0.00 0.00 0.00 0.00
0.48 0.41 0.40 0.36 0.33 0.40 0.45 0.48 0.51 0.56 0.59 0.99 1.13 0.80 0.58 0.70 0.52 0.50 0.38 0.20 0.16 0.19 0.29 0.25 0.22 0.29 0.25 0.15 0.10 0.10 0.07 0.05 0.03 0.02 0.03 0.05 0.09 0.19 0.18 0.01 0.09 0.10 0.00 0.00 0.00 0.00 0.00
0.56 0.51 0.42 0.44 0.50 0.49 0.49 0.50 0.54 0.57 0.45 0.31 0.48 0.53 0.58 0.81 0.54 0.41 0.23 0.20 0.21 0.25 0.31 0.33 0.28 0.31 0.22 0.10 0.10 0.08 0.04 0.02 0.01 0.00 0.01 0.03 0.06 0.16 0.15 0.11 0.29 0.03 0.00 0.00 0.00 0.00 0.00
0.62 0.57 0.52 0.47 0.52 0.64 0.68 0.72 0.77 0.77 0.58 0.44 0.50 0.54 0.66 0.75 0.64 0.58 0.49 0.40 0.43 0.49 0.49 0.39 0.30 0.19 0.17 0.15 0.14 0.06 0.01 0.01 0.00 0.00 0.00 0.01 0.06 0.23 0.30 0.21 0.10 0.00 0.00 0.01 0.03 0.02 0.02
0.65 0.59 0.56 0.51 0.48 0.50 0.62 0.72 0.71 0.67 0.58 0.56 0.62 0.48 0.50 0.57 0.61 0.39 0.38 0.37 0.41 0.42 0.33 0.24 0.17 0.12 0.09 0.12 0.18 0.12 0.03 0.02 0.02 0.01 0.00 0.01 0.06 0.30 0.40 0.46 0.15 0.01 0.02 0.02 0.08 0.07 0.05
0.64 0.53 0.45 0.44 0.47 0.48 0.46 0.46 0.50 0.55 0.51 0.34 0.41 0.38 0.51 0.50 0.46 0.29 0.26 0.27 0.23 0.19 0.16 0.14 0.13 0.12 0.13 0.25 0.22 0.08 0.05 0.04 0.04 0.03 0.04 0.07 0.13 0.24 0.28 0.54 0.31 0.06 0.04 0.09 0.29 0.20 0.16
0.64 0.52 0.42 0.39 0.40 0.46 0.46 0.43 0.40 0.39 0.33 0.24 0.37 0.26 0.22 0.30 0.39 0.27 0.17 0.14 0.16 0.13 0.13 0.18 0.13 0.15 0.22 0.31 0.33 0.23 0.18 0.13 0.10 0.04 0.05 0.09 0.17 0.19 0.28 0.35 0.22 0.10 0.11 0.18 0.22 0.18 0.12
0.68 0.58 0.50 0.44 0.39 0.40 0.41 0.39 0.33 0.27 0.21 0.17 0.26 0.23 0.16 0.17 0.23 0.16 0.12 0.09 0.05 0.03 0.04 0.06 0.08 0.15 0.32 0.39 0.40 0.41 0.36 0.25 0.24 0.15 0.07 0.14 0.21 0.35 0.44 0.30 0.21 0.22 0.22 0.13 0.05 0.03 0.03

GFSGBSN_prec_precacc24_204.txt.gz
Total_Precipitation_Accumulation
0.00 0.00 0.00 0.00 0.00 0.00 0.00 0.00 0.00 0.00 0.00 0.00 0.00 0.00 0.00 0.00 0.00 0.00 0.00 0.00 0.00 0.00 0.00 0.00 0.00 0.00 0.00 0.00 0.00 0.00 0.00 0.00 0.00 0.00 0.00 0.00 0.00 0.00 0.00 0.00 0.00 0.00 0.00 0.00 0.00 0.00 0.00
0.00 0.00 0.00 0.00 0.00 0.00 0.00 0.00 0.00 0.00 0.00 0.00 0.00 0.00 0.00 0.00 0.00 0.00 0.00 0.00 0.00 0.00 0.00 0.00 0.00 0.00 0.00 0.00 0.00 0.00 0.00 0.00 0.00 0.00 0.00 0.00 0.00 0.00 0.00 0.00 0.00 0.00 0.00 0.00 0.00 0.00 0.00
0.00 0.00 0.00 0.00 0.00 0.00 0.00 0.00 0.00 0.00 0.00 0.00 0.00 0.00 0.00 0.00 0.00 0.00 0.00 0.00 0.00 0.00 0.00 0.00 0.00 0.00 0.00 0.00 0.00 0.00 0.00 0.00 0.00 0.00 0.00 0.00 0.00 0.00 0.00 0.00 0.00 0.00 0.00 0.00 0.00 0.00 0.00
0.00 0.00 0.00 0.00 0.00 0.00 0.00 0.00 0.00 0.00 0.00 0.00 0.00 0.00 0.00 0.00 0.00 0.00 0.00 0.00 0.00 0.00 0.00 0.00 0.00 0.00 0.00 0.00 0.00 0.00 0.00 0.00 0.00 0.00 0.00 0.00 0.00 0.00 0.00 0.00 0.00 0.00 0.00 0.00 0.00 0.00 0.00
0.01 0.01 0.01 0.01 0.01 0.00 0.00 0.00 0.00 0.00 0.00 0.00 0.00 0.00 0.00 0.00 0.00 0.00 0.00 0.00 0.00 0.00 0.00 0.00 0.00 0.00 0.00 0.00 0.00 0.00 0.00 0.00 0.00 0.00 0.00 0.00 0.00 0.00 0.00 0.00 0.00 0.00 0.00 0.00 0.00 0.00 0.00
0.00 0.01 0.01 0.01 0.01 0.01 0.00 0.00 0.00 0.00 0.00 0.00 0.00 0.00 0.00 0.00 0.00 0.00 0.00 0.00 0.00 0.00 0.00 0.00 0.00 0.00 0.00 0.00 0.00 0.00 0.00 0.00 0.00 0.00 0.00 0.00 0.00 0.00 0.00 0.00 0.00 0.00 0.00 0.00 0.00 0.00 0.00
0.00 0.00 0.00 0.01 0.01 0.01 0.01 0.00 0.00 0.00 0.00 0.00 0.00 0.00 0.00 0.00 0.00 0.00 0.00 0.00 0.00 0.00 0.00 0.00 0.00 0.00 0.00 0.00 0.00 0.00 0.00 0.00 0.00 0.00 0.00 0.00 0.00 0.00 0.00 0.00 0.00 0.00 0.00 0.00 0.00 0.00 0.00
0.00 0.00 0.00 0.01 0.01 0.02 0.02 0.01 0.01 0.00 0.00 0.00 0.00 0.00 0.00 0.00 0.00 0.00 0.00 0.00 0.00 0.00 0.00 0.00 0.00 0.00 0.00 0.00 0.00 0.00 0.00 0.00 0.00 0.00 0.00 0.00 0.00 0.00 0.00 0.00 0.00 0.00 0.00 0.00 0.00 0.00 0.00
0.01 0.01 0.00 0.00 0.00 0.01 0.02 0.02 0.03 0.02 0.01 0.00 0.00 0.00 0.00 0.00 0.00 0.00 0.00 0.00 0.00 0.00 0.00 0.00 0.00 0.00 0.00 0.00 0.00 0.00 0.00 0.00 0.00 0.00 0.00 0.00 0.00 0.00 0.00 0.00 0.00 0.00 0.00 0.00 0.00 0.00 0.00
0.02 0.01 0.00 0.00 0.00 0.00 0.01 0.01 0.01 0.01 0.01 0.00 0.00 0.00 0.00 0.00 0.00 0.00 0.00 0.00 0.00 0.00 0.00 0.00 0.00 0.00 0.00 0.00 0.00 0.00 0.00 0.00 0.00 0.00 0.00 0.00 0.00 0.00 0.00 0.00 0.00 0.00 0.00 0.00 0.00 0.00 0.00
0.07 0.04 0.01 0.01 0.01 0.01 0.01 0.01 0.01 0.01 0.00 0.00 0.00 0.00 0.00 0.00 0.00 0.00 0.00 0.00 0.00 0.00 0.01 0.00 0.00 0.00 0.00 0.00 0.00 0.00 0.00 0.00 0.00 0.00 0.00 0.00 0.00 0.00 0.00 0.00 0.00 0.00 0.00 0.00 0.00 0.00 0.00
0.16 0.12 0.08 0.05 0.03 0.03 0.02 0.02 0.01 0.01 0.01 0.01 0.01 0.01 0.02 0.01 0.00 0.00 0.00 0.00 0.00 0.03 0.03 0.00 0.00 0.00 0.00 0.00 0.00 0.00 0.00 0.00 0.00 0.00 0.00 0.00 0.00 0.00 0.00 0.00 0.00 0.00 0.00 0.00 0.00 0.00 0.00
0.22 0.19 0.18 0.15 0.14 0.12 0.09 0.06 0.05 0.05 0.06 0.07 0.10 0.13 0.12 0.05 0.02 0.03 0.04 0.05 0.15 0.11 0.01 0.00 0.00 0.00 0.00 0.00 0.00 0.00 0.00 0.00 0.00 0.00 0.00 0.00 0.00 0.00 0.00 0.00 0.00 0.00 0.00 0.00 0.00 0.00 0.00
0.39 0.37 0.33 0.31 0.30 0.28 0.26 0.23 0.23 0.24 0.21 0.20 0.28 0.44 0.46 0.24 0.11 0.17 0.35 0.54 0.35 0.06 0.00 0.00 0.00 0.00 0.00 0.00 0.00 0.00 0.00 0.00 0.00 0.00 0.00 0.00 0.00 0.00 0.00 0.00 0.00 0.00 0.00 0.00 0.00 0.00 0.00
0.57 0.55 0.51 0.48 0.47 0.46 0.45 0.47 0.49 0.49 0.56 0.68 1.02 1.29 0.99 0.42 0.33 0.44 0.86 1.02 0.28 0.02 0.00 0.00 0.00 0.00 0.00 0.00 0.00 0.00 0.00 0.00 0.00 0.00 0.00 0.00 0.00 0.00 0.00 0.00 0.00 0.00 0.00 0.00 0.00 0.00 0.00
0.53 0.58 0.62 0.63 0.63 0.56 0.56 0.59 0.65 0.78 0.98 1.28 1.54 1.48 0.79 0.28 0.50 0.96 1.43 0.77 0.06 0.00 0.00 0.00 0.00 0.00 0.00 0.00 0.00 0.00 0.00 0.00 0.00 0.00 0.00 0.00 0.00 0.00 0.00 0.00 0.00 0.00 0.00 0.00 0.00 0.01 0.00
0.47 0.50 0.52 0.58 0.65 0.64 0.57 0.57 0.62 0.82 1.16 1.77 2.58 2.16 1.22 0.49 0.98 1.69 1.22 0.32 0.02 0.00 0.01 0.01 0.02 0.00 0.00 0.00 0.00 0.00 0.00 0.00 0.00 0.00 0.00 0.00 0.00 0.00 0.00 0.00 0.00 0.00 0.00 0.00 0.00 0.00 0.03
0.54 0.48 0.46 0.47 0.50 0.51 0.49 0.52 0.54 0.63 0.93 1.79 2.15 1.91 1.46 0.71 1.09 1.25 0.50 0.06 0.01 0.01 0.01 0.00 0.00 0.00 0.00 0.00 0.01 0.01 0.00 0.00 0.00 0.00 0.00 0.00 0.00 0.00 0.00 0.00 0.00 0.00 0.00 0.00 0.00 0.01 0.03
0.55 0.52 0.45 0.42 0.41 0.42 0.38 0.39 0.45 0.50 0.67 1.01 1.38 1.51 1.83 1.13 0.91 0.66 0.17 0.03 0.03 0.03 0.02 0.02 0.01 0.01 0.00 0.01 0.05 0.03 0.00 0.00 0.00 0.00 0.00 0.00 0.00 0.00 0.00 0.00 0.00 0.00 0.00 0.00 0.00 0.01 0.03
0.39 0.35 0.38 0.40 0.40 0.38 0.39 0.43 0.46 0.38 0.37 0.81 1.35 1.79 2.19 1.54 0.47 0.15 0.09 0.10 0.11 0.05 0.05 0.06 0.06 0.05 0.06 0.05 0.02 0.04 0.02 0.01 0.00 0.00 0.00 0.01 0.01 0.00 0.00 0.00 0.00 0.00 0.00 0.00 0.01 0.08 0.07
0.40 0.38 0.35 0.32 0.31 0.33 0.37 0.40 0.47 0.49 0.62 1.11 1.69 1.65 1.20 0.94 0.39 0.09 0.04 0.13 0.14 0.15 0.13 0.11 0.16 0.09 0.06 0.16 0.21 0.23 0.09 0.09 0.06 0.02 0.01 0.01 0.01 0.00 0.00 0.00 0.00 0.00 0.00 0.00 0.00 0.01 0.05
0.39 0.40 0.36 0.35 0.37 0.39 0.40 0.38 0.40 0.47 0.73 1.34 1.85 1.79 1.10 0.53 0.21 0.19 0.25 0.30 0.19 0.16 0.18 0.26 0.20 0.11 0.19 0.28 0.19 0.20 0.18 0.20 0.11 0.05 0.03 0.04 0.06 0.03 0.03 0.00 0.00 0.00 0.00 0.00 0.00 0.00 0.00
0.49 0.41 0.41 0.36 0.34 0.40 0.46 0.49 0.52 0.58 0.67 1.23 1.40 1.15 0.73 0.82 0.62 0.63 0.58 0.26 0.18 0.21 0.34 0.28 0.24 0.33 0.33 0.18 0.14 0.18 0.16 0.11 0.08 0.06 0.08 0.13 0.15 0.26 0.22 0.01 0.08 0.09 0.00 0.00 0.00 0.00 0.00
0.57 0.52 0.42 0.45 0.50 0.49 0.49 0.50 0.56 0.61 0.48 0.45 0.64 0.59 0.64 0.88 0.60 0.46 0.25 0.20 0.21 0.27 0.36 0.44 0.36 0.39 0.31 0.14 0.22 0.23 0.14 0.07 0.04 0.03 0.05 0.11 0.12 0.22 0.17 0.09 0.23 0.02 0.00 0.00 0.00 0.00 0.00
0.62 0.58 0.53 0.48 0.52 0.65 0.69 0.72 0.79 0.80 0.62 0.54 0.71 0.62 0.71 0.82 0.72 0.63 0.51 0.43 0.46 0.55 0.64 0.58 0.45 0.25 0.24 0.23 0.24 0.16 0.08 0.06 0.02 0.00 0.02 0.05 0.10 0.23 0.24 0.17 0.09 0.00 0.00 0.01 0.02 0.02 0.02
0.64 0.59 0.56 0.51 0.48 0.50 0.62 0.73 0.72 0.69 0.63 0.70 0.87 0.62 0.56 0.71 0.78 0.44 0.40 0.39 0.45 0.49 0.49 0.45 0.34 0.22 0.16 0.16 0.19 0.13 0.03 0.02 0.01 0.01 0.01 0.02 0.08 0.28 0.34 0.40 0.14 0.01 0.02 0.02 0.07 0.06 0.04
0.65 0.54 0.46 0.44 0.47 0.48 0.46 0.47 0.51 0.57 0.57 0.54 0.67 0.55 0.62 0.72 0.64 0.33 0.28 0.30 0.26 0.23 0.26 0.28 0.29 0.26 0.18 0.25 0.21 0.08 0.03 0.02 0.03 0.03 0.04 0.08 0.12 0.24 0.28 0.53 0.31 0.06 0.04 0.09 0.28 0.19 0.15
0.64 0.53 0.43 0.40 0.41 0.47 0.47 0.44 0.41 0.41 0.43 0.43 0.59 0.38 0.28 0.45 0.65 0.38 0.20 0.16 0.18 0.16 0.18 0.29 0.20 0.23 0.25 0.27 0.32 0.21 0.16 0.11 0.09 0.03 0.05 0.09 0.16 0.18 0.28 0.34 0.21 0.10 0.10 0.17 0.20 0.17 0.12
0.67 0.58 0.50 0.45 0.40 0.40 0.43 0.41 0.37 0.35 0.36 0.35 0.43 0.32 0.19 0.29 0.55 0.39 0.26 0.19 0.12 0.08 0.08 0.11 0.09 0.12 0.25 0.32 0.35 0.38 0.35 0.23 0.23 0.14 0.07 0.14 0.21 0.35 0.43 0.30 0.20 0.21 0.22 0.12 0.05 0.03 0.03

GFSGBSN_prec_precacc24_207.txt.gz
Total_Precipitation_Accumulation
0.00 0.00 0.00 0.00 0.00 0.00 0.00 0.00 0.00 0.00 0.00 0.00 0.00 0.00 0.00 0.00 0.00 0.00 0.00 0.00 0.00 0.00 0.00 0.00 0.00 0.00 0.00 0.00 0.00 0.00 0.00 0.00 0.00 0.00 0.00 0.00 0.00 0.00 0.00 0.00 0.00 0.00 0.00 0.00 0.00 0.00 0.00
0.00 0.00 0.00 0.00 0.00 0.00 0.00 0.00 0.00 0.00 0.00 0.00 0.00 0.00 0.00 0.00 0.00 0.00 0.00 0.00 0.00 0.00 0.00 0.00 0.00 0.00 0.00 0.00 0.00 0.00 0.00 0.00 0.00 0.00 0.00 0.00 0.00 0.00 0.00 0.00 0.00 0.00 0.00 0.00 0.00 0.00 0.00
0.00 0.00 0.00 0.00 0.00 0.00 0.00 0.00 0.00 0.00 0.00 0.00 0.00 0.00 0.00 0.00 0.00 0.00 0.00 0.00 0.00 0.00 0.00 0.00 0.00 0.00 0.00 0.00 0.00 0.00 0.00 0.00 0.00 0.00 0.00 0.00 0.00 0.00 0.00 0.00 0.00 0.00 0.00 0.00 0.00 0.00 0.00
0.00 0.00 0.00 0.00 0.00 0.00 0.00 0.00 0.00 0.00 0.00 0.00 0.00 0.00 0.00 0.00 0.00 0.00 0.00 0.00 0.00 0.00 0.00 0.00 0.00 0.00 0.00 0.00 0.00 0.00 0.00 0.00 0.00 0.00 0.00 0.00 0.00 0.00 0.00 0.00 0.00 0.00 0.00 0.00 0.00 0.00 0.00
0.00 0.00 0.00 0.00 0.00 0.00 0.00 0.00 0.00 0.00 0.00 0.00 0.00 0.00 0.00 0.00 0.00 0.00 0.00 0.00 0.00 0.00 0.00 0.00 0.00 0.00 0.00 0.00 0.00 0.00 0.00 0.00 0.00 0.00 0.00 0.00 0.00 0.00 0.00 0.00 0.00 0.00 0.00 0.00 0.00 0.00 0.00
0.00 0.00 0.00 0.00 0.00 0.00 0.00 0.00 0.00 0.00 0.00 0.00 0.00 0.00 0.00 0.00 0.00 0.00 0.00 0.00 0.00 0.00 0.00 0.00 0.00 0.00 0.00 0.00 0.00 0.00 0.00 0.00 0.00 0.00 0.00 0.00 0.00 0.00 0.00 0.00 0.00 0.00 0.00 0.00 0.00 0.00 0.00
0.00 0.00 0.00 0.01 0.01 0.01 0.00 0.00 0.00 0.00 0.00 0.00 0.00 0.00 0.00 0.00 0.00 0.00 0.00 0.00 0.00 0.00 0.00 0.00 0.00 0.00 0.00 0.00 0.00 0.00 0.00 0.00 0.00 0.00 0.00 0.00 0.00 0.00 0.00 0.00 0.00 0.00 0.00 0.00 0.00 0.00 0.00
0.00 0.00 0.00 0.01 0.01 0.02 0.02 0.01 0.01 0.00 0.00 0.00 0.00 0.00 0.00 0.00 0.00 0.00 0.00 0.00 0.00 0.00 0.00 0.00 0.00 0.00 0.00 0.00 0.00 0.00 0.00 0.00 0.00 0.00 0.00 0.00 0.00 0.00 0.00 0.00 0.00 0.00 0.00 0.00 0.00 0.00 0.00
0.01 0.01 0.00 0.00 0.00 0.01 0.02 0.02 0.03 0.02 0.01 0.00 0.00 0.00 0.00 0.00 0.00 0.00 0.00 0.00 0.00 0.00 0.00 0.00 0.00 0.00 0.00 0.00 0.00 0.00 0.00 0.00 0.00 0.00 0.00 0.00 0.00 0.00 0.00 0.00 0.00 0.00 0.00 0.00 0.00 0.00 0.00
0.03 0.01 0.01 0.01 0.00 0.00 0.01 0.01 0.01 0.01 0.01 0.00 0.00 0.00 0.00 0.00 0.00 0.00 0.00 0.00 0.00 0.00 0.00 0.00 0.00 0.00 0.00 0.00 0.00 0.00 0.00 0.00 0.00 0.00 0.00 0.00 0.00 0.00 0.00 0.00 0.00 0.00 0.00 0.00 0.00 0.00 0.00
0.08 0.06 0.02 0.02 0.02 0.01 0.01 0.01 0.01 0.01 0.00 0.00 0.00 0.00 0.00 0.00 0.00 0.00 0.00 0.00 0.00 0.00 0.01 0.00 0.00 0.00 0.00 0.00 0.00 0.00 0.00 0.00 0.00 0.00 0.00 0.00 0.00 0.00 0.00 0.00 0.00 0.00 0.00 0.00 0.00 0.00 0.00
0.19 0.13 0.09 0.06 0.04 0.03 0.02 0.02 0.01 0.01 0.01 0.01 0.01 0.01 0.02 0.01 0.00 0.00 0.00 0.00 0.00 0.04 0.04 0.00 0.00 0.00 0.00 0.00 0.00 0.00 0.00 0.00 0.00 0.00 0.00 0.00 0.00 0.00 0.00 0.00 0.00 0.00 0.00 0.00 0.00 0.00 0.00
0.29 0.21 0.19 0.16 0.14 0.13 0.10 0.08 0.06 0.05 0.06 0.07 0.10 0.13 0.12 0.06 0.02 0.03 0.04 0.06 0.18 0.14 0.01 0.00 0.00 0.00 0.00 0.00 0.00 0.00 0.00 0.00 0.00 0.00 0.00 0.00 0.00 0.00 0.00 0.00 0.00 0.00 0.00 0.00 0.00 0.00 0.00
0.45 0.43 0.35 0.31 0.30 0.28 0.27 0.25 0.25 0.27 0.23 0.21 0.29 0.45 0.46 0.24 0.11 0.17 0.42 0.64 0.45 0.09 0.00 0.00 0.00 0.00 0.00 0.00 0.00 0.00 0.00 0.00 0.00 0.00 0.00 0.00 0.00 0.00 0.00 0.00 0.00 0.00 0.00 0.00 0.00 0.00 0.00
0.59 0.57 0.54 0.50 0.48 0.47 0.45 0.48 0.52 0.55 0.67 0.87 1.32 1.48 1.04 0.42 0.33 0.51 1.15 1.26 0.33 0.02 0.00 0.00 0.00 0.00 0.00 0.00 0.00 0.00 0.00 0.00 0.00 0.00 0.00 0.00 0.00 0.00 0.00 0.00 0.00 0.00 0.00 0.00 0.00 0.00 0.00
0.56 0.60 0.63 0.65 0.64 0.57 0.56 0.59 0.65 0.79 1.03 1.52 2.12 1.97 1.02 0.29 0.51 1.25 1.94 0.97 0.07 0.00 0.00 0.00 0.01 0.00 0.00 0.00 0.00 0.00 0.00 0.00 0.00 0.00 0.00 0.00 0.00 0.00 0.00 0.00 0.00 0.00 0.00 0.00 0.00 0.00 0.00
0.52 0.53 0.53 0.58 0.65 0.64 0.57 0.57 0.62 0.83 1.17 1.92 3.16 2.73 1.44 0.55 1.22 2.12 1.56 0.39 0.02 0.00 0.01 0.02 0.02 0.01 0.00 0.00 0.00 0.00 0.00 0.00 0.00 0.00 0.00 0.00 0.00 0.00 0.00 0.00 0.00 0.00 0.00 0.00 0.00 0.00 0.01
0.55 0.49 0.47 0.49 0.51 0.51 0.49 0.51 0.53 0.63 1.00 2.21 2.71 2.35 1.71 0.85 1.58 1.80 0.64 0.07 0.01 0.01 0.01 0.00 0.00 0.00 0.00 0.00 0.02 0.02 0.00 0.00 0.00 0.00 0.00 0.00 0.00 0.00 0.00 0.00 0.00 0.00 0.00 0.00 0.00 0.00 0.00
0.55 0.52 0.45 0.42 0.41 0.42 0.38 0.39 0.45 0.49 0.75 1.39 1.87 1.82 2.09 1.42 1.15 0.80 0.20 0.04 0.03 0.03 0.02 0.02 0.01 0.01 0.00 0.01 0.09 0.07 0.01 0.01 0.00 0.01 0.00 0.00 0.00 0.01 0.00 0.00 0.00 0.00 0.00 0.00 0.00 0.00 0.02
0.39 0.35 0.38 0.40 0.40 0.38 0.39 0.44 0.47 0.37 0.36 1.05 1.83 2.20 2.48 1.92 0.64 0.19 0.10 0.11 0.12 0.05 0.05 0.06 0.06 0.06 0.08 0.10 0.07 0.13 0.07 0.02 0.01 0.00 0.00 0.01 0.01 0.00 0.00 0.01 0.01 0.00 0.00 0.00 0.01 0.05 0.05
0.40 0.38 0.35 0.32 0.31 0.34 0.37 0.40 0.47 0.49 0.56 1.23 2.16 2.15 1.45 1.06 0.44 0.11 0.05 0.13 0.14 0.15 0.13 0.11 0.16 0.10 0.06 0.25 0.32 0.33 0.13 0.16 0.10 0.03 0.02 0.04 0.04 0.00 0.00 0.00 0.00 0.00 0.00 0.00 0.00 0.00 0.03
0.39 0.40 0.36 0.35 0.37 0.40 0.41 0.39 0.40 0.47 0.73 1.52 2.15 2.07 1.28 0.58 0.21 0.18 0.24 0.34 0.21 0.16 0.20 0.29 0.21 0.12 0.22 0.42 0.25 0.25 0.26 0.27 0.16 0.08 0.06 0.06 0.07 0.03 0.04 0.00 0.00 0.00 0.00 0.00 0.00 0.00 0.00
0.49 0.41 0.41 0.36 0.34 0.41 0.46 0.49 0.53 0.58 0.74 1.53 1.70 1.32 0.75 0.85 0.62 0.62 0.58 0.26 0.18 0.22 0.41 0.33 0.28 0.38 0.48 0.23 0.16 0.27 0.23 0.19 0.12 0.06 0.09 0.13 0.16 0.29 0.23 0.01 0.07 0.09 0.00 0.00 0.00 0.00 0.00
0.57 0.52 0.43 0.45 0.51 0.50 0.50 0.51 0.57 0.62 0.51 0.62 0.83 0.59 0.61 0.87 0.60 0.47 0.24 0.19 0.20 0.29 0.44 0.54 0.46 0.46 0.39 0.16 0.31 0.38 0.26 0.14 0.07 0.05 0.05 0.11 0.13 0.26 0.18 0.08 0.19 0.02 0.00 0.00 0.00 0.00 0.00
0.62 0.58 0.53 0.48 0.53 0.66 0.69 0.73 0.79 0.82 0.64 0.60 0.87 0.77 0.79 0.86 0.73 0.61 0.50 0.43 0.46 0.60 0.82 0.74 0.50 0.27 0.28 0.32 0.41 0.31 0.19 0.12 0.05 0.02 0.04 0.05 0.10 0.24 0.23 0.15 0.07 0.00 0.00 0.01 0.02 0.02 0.02
0.64 0.58 0.56 0.52 0.49 0.51 0.62 0.73 0.73 0.71 0.67 0.77 0.95 0.81 0.80 0.98 1.01 0.48 0.40 0.39 0.46 0.56 0.69 0.62 0.43 0.29 0.27 0.28 0.27 0.17 0.06 0.02 0.01 0.00 0.01 0.04 0.10 0.30 0.32 0.34 0.10 0.00 0.01 0.02 0.07 0.06 0.02
0.65 0.53 0.46 0.44 0.47 0.48 0.47 0.48 0.53 0.60 0.60 0.60 0.83 0.69 0.88 1.20 1.01 0.43 0.31 0.31 0.26 0.24 0.33 0.41 0.44 0.47 0.27 0.28 0.24 0.09 0.04 0.01 0.01 0.00 0.02 0.08 0.16 0.27 0.27 0.52 0.29 0.06 0.04 0.09 0.27 0.16 0.11
0.64 0.52 0.43 0.40 0.41 0.47 0.48 0.46 0.44 0.45 0.46 0.49 0.64 0.52 0.47 0.78 1.02 0.58 0.25 0.17 0.17 0.15 0.20 0.43 0.38 0.42 0.34 0.29 0.32 0.20 0.14 0.08 0.05 0.01 0.01 0.06 0.14 0.16 0.25 0.33 0.21 0.10 0.10 0.16 0.19 0.17 0.12
0.67 0.57 0.50 0.45 0.40 0.41 0.44 0.42 0.38 0.38 0.40 0.40 0.47 0.35 0.30 0.54 0.94 0.70 0.42 0.23 0.13 0.10 0.16 0.31 0.25 0.16 0.21 0.28 0.30 0.29 0.29 0.19 0.19 0.12 0.06 0.12 0.20 0.33 0.42 0.27 0.19 0.21 0.22 0.12 0.05 0.03 0.03